GFSSGP_2pvu_pres_021.txt.gz
Presure
161 105 125 145 148 140 131 109 118 132 132 115 139 171 114 131 135 111 117 115 109 108 109 122 120 126 122 124 162 148 137 171 156 158 158 167 194 210 326 307 283 239 241 234 264 284 221 254 276
109 104 138 121 131 134 127 146 140 143 135 140 125 107 127 109 109 136 111 127 110 116 125 127 124 115 136 145 161 134 148 174 152 155 183 211 287 256 223 229 267 252 271 243 280 246 236 237 239
124 123 90 115 178 143 151 131 101 121 136 139 104 117 104 142 116 117 109 117 134 118 126 125 144 151 156 128 137 154 161 150 182 188 182 235 317 320 249 310 296 302 286 277 276 277 275 267 274
113 103 126 127 144 112 124 144 175 113 125 139 112 121 149 115 117 106 115 135 159 144 141 156 135 133 130 135 167 178 177 175 194 211 266 228 251 248 214 245 231 236 225 240 285 286 273 265 257
127 127 112 125 122 112 123 147 97 128 132 110 117 135 118 117 107 112 118 140 111 137 145 150 127 142 147 173 177 180 187 200 265 243 258 253 249 241 239 237 237 241 240 235 239 234 224 255 263
105 130 123 121 134 121 128 103 110 139 116 109 107 116 117 115 126 141 144 122 155 152 149 123 148 143 155 161 180 249 186 250 240 237 229 232 236 236 190 232 227 221 214 223 221 230 235 234 227
129 134 111 136 148 172 119 123 102 117 105 111 117 159 152 143 143 134 122 136 157 135 125 167 168 154 185 195 191 217 239 220 192 235 229 223 219 215 215 215 215 215 214 207 205 207 210 213 215
166 128 115 126 126 148 113 113 118 145 104 161 117 133 152 163 121 146 114 140 148 134 153 174 155 172 191 225 226 241 184 231 227 216 218 207 207 202 202 199 193 197 202 204 200 184 199 203 203
171 137 145 110 132 122 113 139 115 110 141 123 159 142 137 122 158 150 151 126 170 172 171 161 171 192 197 232 236 226 218 219 216 207 206 202 201 199 202 199 192 186 187 186 184 190 196 197 192
140 123 121 113 113 125 144 109 147 157 152 119 163 138 160 141 128 140 154 169 163 164 164 173 204 247 220 202 225 218 210 208 201 191 201 201 196 192 189 191 189 191 194 182 182 189 194 188 187
172 165 175 162 114 115 105 120 153 156 169 177 177 128 125 125 138 167 147 173 166 186 181 237 205 221 218 206 206 204 194 192 185 194 185 199 198 193 187 182 176 178 185 189 191 192 188 188 185
176 147 151 171 139 167 146 160 166 165 149 155 132 118 147 174 133 180 173 157 175 221 210 228 208 217 187 201 194 193 192 185 188 184 177 169 172 162 166 179 198 170 157 192 191 194 181 189 188
177 176 155 124 165 155 162 135 183 189 128 122 123 167 178 158 160 162 178 237 208 170 224 188 214 198 202 201 189 195 184 183 183 180 191 191 191 189 175 171 179 186 170 165 179 184 183 181 187
189 154 130 125 182 141 123 176 162 126 119 130 180 189 166 158 201 238 219 211 224 212 210 212 196 188 199 201 193 193 185 195 197 198 184 197 195 184 178 156 156 170 182 179 147 174 182 191 189
220 207 199 136 129 194 181 130 126 132 127 168 139 170 194 190 196 235 207 220 206 203 209 203 200 202 195 200 195 202 203 188 187 175 192 174 185 192 186 177 164 177 184 181 185 152 156 169 170
252 226 134 140 202 192 128 143 134 169 193 180 151 140 229 223 222 221 221 218 211 208 203 207 206 199 200 210 202 202 209 182 205 134 167 185 193 190 192 185 164 182 183 179 192 152 142 146 129
258 244 200 125 251 130 189 137 239 210 135 170 136 222 222 212 219 209 211 213 211 208 208 215 210 199 196 195 194 202 204 199 176 122 146 183 183 180 182 186 186 161 188 165 126 182 126 195 140
245 273 240 253 247 247 230 226 235 198 216 135 204 228 218 210 215 221 222 218 222 215 210 206 204 205 206 184 198 197 193 188 157 125 172 169 179 182 183 181 186 191 196 198 142 145 206 208 149
236 234 234 237 245 230 236 230 135 220 174 222 216 213 212 221 225 227 221 206 198 202 205 203 195 194 143 142 185 188 185 178 174 180 181 183 182 189 196 207 126 120 125 208 203 204 201 143 181
232 226 226 238 200 237 195 221 218 221 216 221 212 212 224 223 200 192 196 204 206 195 190 184 183 184 183 184 181 185 189 186 183 184 188 196 204 205 206 205 204 209 203 198 156 153 202 203 154
235 227 230 227 227 218 220 216 206 216 222 212 208 223 194 194 190 207 199 195 185 182 179 172 182 186 183 189 185 189 188 185 186 191 204 203 198 209 134 163 185 202 205 215 213 213 214 202 219
229 152 184 223 225 212 216 208 213 218 217 216 211 189 192 196 201 196 193 183 182 181 178 191 189 186 182 181 181 184 192 188 199 200 189 193 196 139 202 206 206 201 200 199 217 221 219 179 221
134 134 224 221 223 210 204 204 212 214 195 197 193 192 192 192 200 190 181 183 172 183 186 187 184 181 181 136 186 182 191 144 191 196 114 191 158 194 194 205 212 217 218 219 224 224 221 219 223
219 223 211 223 215 209 202 195 196 199 192 204 193 188 195 199 191 183 180 175 176 183 183 180 181 174 165 179 123 140 114 192 186 186 184 188 194 203 197 202 214 220 226 232 226 223 220 229 229
234 239 231 227 220 219 207 205 198 191 197 190 193 192 194 196 182 181 164 179 175 187 174 178 177 110 173 181 97 191 193 189 189 192 191 197 200 205 214 209 219 228 228 220 229 228 229 254 256
242 244 241 234 225 221 198 206 193 183 191 190 190 191 187 181 185 175 182 173 179 177 174 180 180 113 183 194 194 165 185 189 193 135 127 126 131 211 210 224 231 234 227 236 239 251 257 255 269
236 240 239 236 220 189 197 195 197 196 190 182 179 178 172 181 185 186 172 175 87 175 177 179 187 192 184 126 195 186 189 185 120 137 208 217 223 219 233 237 239 232 245 253 261 257 271 337 345
198 199 196 195 193 191 195 196 189 193 189 181 180 180 180 182 186 179 176 174 181 180 180 198 189 110 176 198 197 187 191 191 205 214 220 224 236 235 231 243 251 258 268 271 272 333 347 348 312
196 197 203 188 201 195 188 189 187 194 189 181 176 180 188 184 178 172 173 185 181 180 183 183 118 194 199 189 192 193 173 211 214 226 238 238 238 244 248 254 266 317 341 341 352 343 297 406 423
189 187 187 184 182 185 185 191 187 189 182 185 190 186 175 174 183 178 181 182 184 185 113 178 192 195 192 198 198 203 210 226 233 240 244 244 251 259 268 338 340 339 355 336 295 418 428 423 424

GFSSGP_2pvu_pres_024.txt.gz
Presure
119 126 130 129 157 117 122 145 167 144 111 125 130 127 155 124 139 133 129 134 141 144 112 133 142 116 123 126 116 130 133 168 161 125 150 157 182 176 209 213 246 267 313 275 243 283 266 276 294
122 116 103 139 124 127 107 91 133 120 122 137 130 144 130 145 122 125 114 123 131 139 111 124 121 125 128 119 134 139 164 121 141 128 144 139 164 247 217 295 323 317 312 309 282 297 293 292 283
105 170 136 111 117 111 137 147 148 103 122 119 141 138 126 125 129 137 138 142 122 140 126 126 132 123 134 143 157 138 161 157 155 141 173 184 199 258 278 254 262 258 233 240 247 242 226 272 284
147 84 106 134 121 124 126 108 122 154 112 109 144 100 148 170 113 117 118 110 122 123 126 117 123 135 169 133 157 158 121 138 176 163 161 173 263 210 249 250 242 241 238 240 231 147 235 231 233
126 123 136 125 151 133 130 124 120 152 126 129 118 113 116 115 115 117 123 116 122 124 127 142 142 151 151 159 161 123 146 168 162 161 186 242 250 227 233 227 223 225 225 222 223 219 219 220 218
163 129 138 132 140 123 133 117 115 109 114 136 132 114 116 119 117 115 125 117 121 135 156 147 153 133 160 154 150 151 171 158 169 233 239 240 234 212 222 219 218 212 212 213 215 211 208 209 213
170 129 159 118 137 136 130 127 115 145 154 111 117 118 119 115 125 136 125 119 119 149 119 120 144 161 138 142 171 170 166 172 173 238 230 226 216 218 207 207 213 208 189 192 201 206 204 203 204
112 176 121 105 140 134 130 133 133 115 112 118 138 176 126 167 127 124 117 156 142 164 124 119 154 168 154 175 172 173 171 240 216 217 227 210 203 202 194 209 208 199 203 200 203 194 196 204 202
150 185 115 150 132 148 160 103 116 116 117 121 137 147 173 123 133 161 156 146 116 123 133 160 164 170 168 145 170 171 195 222 191 222 216 203 198 202 193 191 192 193 190 182 188 196 192 183 189
127 155 124 163 164 151 163 126 118 141 108 116 122 131 120 116 129 150 163 119 124 148 151 164 126 170 177 220 229 215 199 226 212 206 200 196 196 190 190 179 166 174 174 173 176 165 190 184 191
138 187 187 119 118 167 137 171 169 155 155 146 119 116 129 155 128 124 124 123 153 156 162 132 167 211 227 224 218 211 218 205 206 202 194 195 184 185 183 178 186 196 183 181 176 191 170 185 188
114 119 172 178 136 177 130 116 129 133 170 154 139 128 159 160 126 126 124 132 158 134 140 183 187 202 201 215 194 204 204 204 207 196 202 191 187 195 209 196 206 193 192 177 173 163 178 180 164
122 120 117 151 168 170 173 173 168 157 120 116 160 170 152 145 139 129 162 169 154 180 192 188 215 208 215 213 202 203 195 205 205 195 193 196 187 175 174 189 179 192 197 200 184 161 163 183 184
203 195 175 179 160 163 174 175 176 129 117 164 129 130 176 129 127 152 177 132 199 191 186 224 212 210 194 201 198 206 205 203 210 192 198 207 194 186 200 135 165 193 192 193 139 195 170 186 179
248 190 188 197 197 190 130 132 122 179 130 126 130 188 132 137 189 197 155 198 181 224 212 215 213 182 214 214 216 208 207 197 177 186 214 204 205 200 121 128 185 184 185 187 191 189 192 193 195
219 237 144 215 213 208 265 278 131 127 129 186 194 130 210 200 164 184 206 227 229 221 219 226 226 228 220 213 212 207 212 215 211 172 195 187 192 184 187 154 184 183 189 189 186 196 195 181 205
252 252 253 249 214 131 126 126 186 257 259 246 172 248 226 215 204 221 195 228 234 235 233 228 168 208 211 213 209 199 195 171 191 191 190 183 187 182 186 189 188 190 194 198 204 206 207 185 212
227 226 227 226 245 257 251 236 216 218 231 237 238 227 230 228 226 224 229 234 235 211 208 200 210 214 201 198 185 185 188 176 181 183 187 190 189 187 178 193 198 203 198 199 209 209 205 185 200
229 254 253 226 214 223 233 239 230 232 237 226 230 231 218 222 223 231 218 205 200 193 208 211 198 193 190 187 191 193 184 184 183 176 176 180 185 192 202 200 197 206 199 194 131 116 196 194 195
242 240 227 171 210 234 234 237 230 229 225 210 161 219 228 221 226 201 201 190 197 212 203 199 191 190 184 188 189 186 188 185 185 182 189 185 148 184 195 118 194 194 199 194 198 200 185 189 180
145 154 239 232 224 226 231 225 182 146 225 215 222 221 221 220 199 200 191 195 198 203 195 188 184 183 183 193 184 183 185 183 168 191 192 162 200 133 203 193 196 199 203 204 208 206 210 204 216
228 235 228 231 229 228 139 191 216 216 218 218 226 214 219 203 194 192 195 203 208 198 189 182 188 182 182 190 184 183 187 188 147 102 187 135 195 195 193 195 183 196 198 209 211 213 221 223 231
232 229 227 227 225 144 226 227 212 203 207 215 208 214 198 193 194 195 190 204 201 182 184 184 187 181 179 181 181 182 182 183 186 191 189 195 193 190 197 195 189 127 124 165 141 151 221 229 236
233 229 195 225 223 213 223 214 227 212 197 209 192 196 197 192 188 199 202 193 178 189 186 191 183 182 181 184 187 184 115 104 111 142 196 186 157 137 137 143 205 212 226 233 229 228 239 238 244
256 245 237 238 241 234 223 220 222 207 212 188 200 193 190 190 194 196 184 182 185 184 189 182 179 179 180 187 168 184 186 118 192 188 184 203 187 209 184 216 226 233 225 244 243 242 256 256 257
250 237 236 238 240 245 243 233 235 160 191 194 197 194 193 192 186 183 187 181 189 185 182 180 178 181 183 182 184 127 179 184 189 197 207 200 197 194 207 227 242 229 241 253 262 268 267 280 350
201 202 199 202 199 213 226 212 137 190 194 199 190 191 190 191 191 178 173 184 183 177 179 182 184 183 183 109 191 194 192 191 199 166 203 178 227 232 239 241 248 250 274 274 284 286 339 281 359
203 205 204 202 201 201 201 204 200 199 189 185 190 189 192 184 181 187 189 187 182 181 175 87 185 180 122 194 187 190 194 162 194 207 219 236 242 229 254 263 266 287 318 317 281 272 320 286 278
193 187 186 192 194 192 192 199 187 179 180 190 186 181 182 190 186 179 176 180 188 185 189 187 164 137 137 181 192 197 163 211 217 225 242 242 242 253 279 270 314 276 270 270 280 296 303 421 433
196 193 196 197 197 189 191 191 187 190 185 189 195 199 192 186 185 182 183 187 89 188 184 184 129 146 189 186 202 161 199 225 237 251 237 240 259 277 268 280 258 266 307 304 351 441 430 421 412

GFSSGP_2pvu_pres_027.txt.gz
Presure
104 119 117 129 116 154 126 132 103 96 123 139 126 121 122 115 116 126 151 133 127 123 134 136 117 134 120 154 122 111 124 136 138 169 126 141 161 171 146 161 186 181 293 287 294 248 293 296 279
127 113 103 132 114 128 109 123 111 107 128 102 118 116 116 114 132 119 106 133 141 130 108 154 126 163 119 117 122 117 168 116 121 160 142 161 144 165 180 185 157 249 270 267 249 253 248 244 234
122 125 166 133 140 107 138 127 110 126 132 119 138 114 129 133 127 115 108 139 118 109 123 153 132 115 136 121 162 142 125 124 170 162 138 170 180 160 186 194 200 249 248 225 239 239 235 233 236
122 134 149 146 165 147 131 118 163 132 141 122 109 106 116 110 124 101 132 112 111 121 124 124 119 115 124 142 124 125 111 161 130 131 161 166 167 188 218 232 219 231 231 233 216 216 215 201 214
119 122 138 152 140 170 140 130 122 128 129 144 98 116 112 120 104 119 127 119 133 125 124 120 125 126 142 123 121 126 148 139 158 168 155 155 174 234 248 215 232 223 211 203 217 218 210 204 200
125 119 112 169 113 183 112 119 121 125 141 121 133 125 158 113 130 116 113 156 145 160 173 123 150 149 128 121 169 156 162 157 149 162 166 195 233 232 213 227 219 205 209 203 201 191 193 200 206
190 122 131 130 136 113 118 130 118 118 131 131 127 127 151 121 117 109 120 127 112 145 144 168 144 121 119 123 126 148 136 154 170 172 192 226 228 199 220 208 207 209 213 212 193 187 206 195 200
133 122 148 127 117 120 112 116 111 113 167 170 134 133 106 117 111 160 170 112 115 124 133 136 121 122 126 165 154 127 161 177 161 195 186 235 218 215 215 198 202 202 204 197 186 185 189 179 163
129 152 142 119 107 130 145 131 176 133 138 119 139 147 148 121 138 162 109 117 125 135 128 122 131 150 135 159 160 162 140 174 201 181 216 220 212 215 202 206 203 191 186 186 176 178 176 170 164
123 131 135 173 134 129 128 138 145 184 182 173 170 161 154 178 180 132 117 167 151 119 125 165 126 136 156 159 142 176 176 179 212 223 215 197 208 209 204 204 195 189 190 191 198 200 191 190 181
127 137 147 159 172 121 137 145 188 160 130 128 186 132 157 132 114 118 158 120 126 138 163 123 159 158 154 180 178 168 185 195 224 220 204 203 205 197 203 197 193 191 196 187 198 178 181 197 204
181 134 195 117 180 99 115 126 125 175 180 185 174 173 169 164 130 167 145 120 129 166 160 140 172 166 134 172 197 214 222 218 205 215 205 213 205 206 127 211 214 211 197 185 127 141 200 185 182
158 208 188 136 165 169 187 122 135 111 126 184 170 174 169 156 156 131 121 126 162 167 150 161 176 147 202 202 212 218 194 195 221 220 217 208 204 209 202 171 214 206 171 188 198 192 146 189 181
230 232 223 221 221 132 164 186 188 176 179 178 164 132 142 156 145 124 145 173 159 167 171 185 221 247 204 242 224 206 179 205 219 220 217 214 213 209 197 195 194 191 192 186 183 180 184 184 186
217 205 217 213 203 216 201 188 190 188 189 184 188 181 152 123 133 178 172 190 213 166 186 150 220 180 234 89 109 173 182 220 218 204 197 189 194 190 187 190 182 183 182 181 181 175 175 185 210
238 225 210 182 208 208 224 216 196 204 202 210 127 182 198 197 243 185 238 246 187 155 226 232 253 233 75 170 169 180 228 207 202 184 179 187 187 192 192 189 182 184 187 192 196 210 200 202 203
228 238 244 249 227 238 229 222 240 268 129 201 269 249 211 209 240 243 225 214 231 220 232 247 245 240 183 182 191 206 203 193 194 191 200 190 193 190 183 181 175 191 191 195 199 202 209 194 192
248 251 255 257 251 253 263 241 266 263 246 233 214 223 221 214 204 221 212 227 224 232 237 215 212 192 199 204 211 201 193 187 186 189 189 191 178 189 183 187 193 150 152 204 121 110 196 196 198
232 236 239 237 238 231 226 227 223 222 223 219 249 234 222 241 222 232 225 208 229 219 216 204 206 198 215 194 202 192 182 184 189 187 188 184 187 188 105 196 196 196 196 197 184 200 203 198 197
234 239 248 241 239 210 238 225 146 174 234 228 228 228 132 218 229 214 222 223 200 211 196 200 201 204 212 203 192 183 183 188 187 186 185 192 194 190 141 136 161 123 184 189 199 200 189 195 194
219 212 219 228 180 144 188 227 222 225 228 183 187 195 224 220 217 227 217 226 205 202 194 201 199 205 209 183 190 182 189 192 188 185 191 192 175 110 192 203 204 182 195 202 173 193 146 184 122
219 234 207 149 206 227 225 224 222 222 156 215 210 212 215 213 216 217 216 198 204 196 193 203 205 191 183 190 184 193 194 190 187 190 189 187 193 194 115 193 189 198 199 198 210 214 210 216 199
226 224 235 231 231 226 229 231 217 222 216 216 217 215 208 203 210 204 196 199 198 194 200 199 183 183 188 175 191 189 175 190 185 191 185 185 199 136 187 194 206 191 199 212 214 223 229 238 236
245 242 238 237 231 231 233 233 238 239 219 207 209 207 209 212 191 192 191 190 193 196 194 184 191 180 188 190 189 183 184 188 188 155 182 186 195 179 195 203 189 214 221 223 235 238 238 229 252
240 257 259 255 243 238 243 253 263 275 271 239 208 206 203 205 208 196 198 197 191 187 190 186 184 194 194 187 191 190 191 184 168 141 196 201 189 198 191 206 221 221 235 239 242 254 256 261 286
226 232 225 225 221 219 219 209 209 219 230 248 201 187 189 194 195 184 183 195 197 192 189 195 189 179 188 175 186 190 186 122 198 182 192 194 200 193 212 230 230 255 250 262 268 281 279 291 286
205 204 199 201 204 203 200 201 199 200 206 206 205 200 194 188 184 195 193 192 190 196 195 188 184 187 184 189 174 192 198 193 186 206 195 200 215 223 237 245 246 258 266 257 283 353 341 338 323
201 205 202 200 199 202 200 196 196 195 197 196 190 183 185 190 189 194 200 202 194 187 185 187 184 187 150 180 194 190 186 189 190 194 224 223 223 239 242 265 272 286 276 296 358 350 339 341 341
196 194 192 190 189 196 200 207 203 202 194 190 186 186 189 181 202 196 189 188 188 178 186 189 189 181 144 185 180 190 194 191 210 211 228 229 243 256 280 298 297 280 339 351 356 359 417 436 422
192 198 197 194 192 194 189 194 189 192 196 196 199 202 210 204 181 187 190 181 178 178 183 190 178 148 138 190 193 192 205 219 213 231 253 245 266 285 263 275 296 340 339 428 435 429 417 406 402

GFSSGP_2pvu_pres_030.txt.gz
Presure
123 122 144 108 111 150 144 112 123 124 118 91 117 125 99 118 123 119 112 115 137 112 133 126 110 119 127 127 148 124 113 130 130 134 153 121 132 163 150 168 132 189 166 176 272 266 247 258 249
129 135 185 163 139 108 94 162 102 121 128 107 149 138 130 134 107 109 128 117 117 116 119 120 116 127 131 113 132 114 131 141 134 128 117 176 126 155 155 172 194 178 187 205 228 229 240 237 236
122 126 164 124 154 174 148 112 134 163 126 134 132 137 119 131 135 132 133 138 128 135 133 112 121 145 146 157 144 142 132 184 117 118 186 157 167 164 152 152 173 173 225 221 231 236 225 208 212
118 126 128 152 104 125 118 133 105 161 162 117 131 131 135 116 111 117 124 126 118 133 112 115 140 116 140 114 136 160 164 119 125 123 166 166 149 160 164 170 172 228 226 231 213 207 207 208 196
182 131 114 176 127 163 122 118 121 155 142 127 149 128 121 129 130 127 130 119 133 127 127 126 122 165 172 118 134 142 120 131 166 136 152 174 143 170 173 173 224 220 219 225 200 202 205 201 205
181 139 137 155 140 117 167 134 138 142 101 117 149 148 162 129 129 129 133 130 140 133 125 110 118 167 151 163 119 123 150 157 154 164 169 129 168 178 177 229 212 224 203 223 192 213 208 191 188
156 173 151 125 115 124 131 115 155 105 131 160 132 116 118 184 177 125 143 119 124 127 175 158 169 147 134 138 124 133 164 151 162 165 181 175 163 170 226 221 216 206 205 204 199 197 192 184 181
129 112 110 112 178 129 190 128 132 149 124 117 178 137 183 183 157 134 184 180 164 135 112 141 123 135 162 126 123 169 159 168 169 188 135 171 170 223 225 208 205 206 202 207 199 193 188 193 191
244 157 165 138 116 124 123 116 102 131 184 123 119 141 177 122 181 163 119 169 181 121 165 120 140 168 123 121 162 165 167 141 164 169 170 187 211 219 199 218 207 212 205 203 198 193 196 187 200
188 144 152 138 118 155 146 148 118 181 115 151 159 182 149 117 157 147 131 169 128 173 159 181 169 123 123 152 160 157 163 164 166 176 185 228 207 195 220 215 213 209 200 210 204 206 206 195 175
216 172 235 152 118 124 164 133 182 104 111 184 187 134 107 116 166 134 169 167 164 166 177 138 122 124 163 162 163 167 145 174 188 180 223 136 177 170 228 227 216 199 207 199 198 193 195 164 194
221 150 130 157 108 199 139 130 107 123 185 161 101 139 186 127 126 122 126 162 131 179 167 121 139 171 163 188 170 162 236 196 168 223 217 208 177 174 219 216 213 210 197 192 192 202 195 193 190
164 188 158 149 226 174 118 118 165 174 155 111 179 182 187 159 177 172 165 175 170 139 171 175 175 175 186 172 209 201 180 199 198 213 206 186 193 204 201 193 184 183 185 179 185 188 189 189 188
217 229 202 213 229 230 207 193 197 172 182 176 185 183 180 175 169 181 190 191 148 183 183 183 171 180 163 152 207 154 195 208 214 207 197 201 180 203 192 193 191 195 193 190 188 185 180 173 183
227 218 216 207 197 223 212 210 223 220 219 214 212 205 207 203 210 194 125 183 193 179 178 191 180 241 258 204 209 206 197 227 211 205 200 187 181 195 194 194 197 189 194 185 186 189 181 188 194
214 198 213 208 208 208 215 212 211 225 206 217 210 209 205 203 127 166 198 190 197 212 218 227 228 229 209 228 235 195 228 207 207 202 193 182 196 192 189 191 194 191 187 187 190 188 189 195 190
174 219 211 206 205 206 206 208 202 202 207 204 202 202 197 224 243 248 259 254 238 157 224 223 220 217 227 234 232 226 207 200 204 187 189 202 187 182 180 187 184 143 186 151 190 185 155 122 125
232 238 245 226 231 242 234 235 254 266 218 207 250 238 253 249 252 245 240 216 189 180 217 240 217 223 219 215 205 222 191 192 202 206 207 193 186 183 183 192 182 184 129 182 192 189 195 203 195
227 226 228 232 236 241 248 244 241 266 253 241 239 233 195 224 244 246 233 135 216 215 234 218 221 223 205 212 192 201 207 211 214 206 178 182 189 187 196 190 189 184 178 179 183 112 194 184 194
240 237 234 225 225 243 241 235 235 160 230 143 168 242 219 218 235 212 207 220 215 213 211 226 232 213 205 200 187 199 206 199 184 183 188 191 192 194 183 193 199 187 189 196 162 190 194 198 200
235 234 231 231 229 229 229 227 181 142 182 212 213 213 220 211 219 220 214 212 206 212 216 205 214 194 201 194 199 200 191 183 192 187 195 199 198 197 195 195 195 199 207 194 200 201 195 190 198
223 219 218 219 158 211 230 229 227 233 222 218 218 221 222 217 219 215 218 214 214 214 217 189 190 192 194 199 196 191 191 192 193 191 190 194 193 198 200 203 175 198 202 202 185 201 228 229 221
218 216 216 217 212 216 229 224 231 226 224 218 219 227 228 227 225 212 214 214 207 195 203 197 196 199 192 192 193 193 191 195 189 195 196 194 193 190 110 201 201 200 195 214 223 219 227 232 239
219 236 221 216 236 240 250 249 248 247 242 233 221 217 220 212 212 208 207 205 194 202 202 192 190 192 193 191 188 197 188 189 194 191 123 191 196 193 194 196 193 203 218 217 221 233 248 255 262
250 245 253 249 251 250 235 232 229 231 233 237 243 244 227 220 210 206 203 195 199 192 188 193 192 193 194 199 194 184 193 193 172 151 191 199 197 199 201 204 208 216 226 241 248 257 266 258 280
233 224 221 219 216 212 212 208 212 208 205 199 198 198 197 198 201 199 193 194 182 187 180 189 192 198 194 183 176 187 191 105 191 185 195 196 194 196 210 218 227 247 255 252 254 265 276 292 307
213 209 207 208 208 203 203 204 205 204 200 198 199 198 201 199 197 193 186 184 192 186 204 210 194 191 179 181 191 184 184 178 191 134 195 194 215 224 233 244 256 262 237 266 279 284 302 341 335
198 203 201 202 201 201 196 193 191 197 202 201 199 190 184 188 190 195 206 213 215 207 197 191 184 189 192 188 187 139 188 193 194 195 206 215 223 238 242 259 264 252 270 285 297 382 449 450 445
202 197 195 196 196 201 207 200 196 191 197 200 203 212 214 213 215 214 205 197 197 191 187 190 196 183 190 189 124 120 194 196 177 207 210 224 242 240 262 251 250 279 281 376 445 441 426 417 415
197 201 197 193 198 194 193 197 197 201 196 199 200 212 212 208 207 201 204 195 181 192 179 176 190 182 181 180 189 199 196 195 207 224 221 241 244 266 249 270 212 362 461 437 436 427 416 433 420

GFSSGP_2pvu_pres_033.txt.gz
Presure
124 132 123 121 96 92 124 110 125 124 146 169 140 118 141 88 165 141 114 128 141 134 130 117 118 125 122 104 127 129 114 111 113 114 146 143 139 120 124 155 158 174 197 169 158 183 241 243 231
106 112 122 132 165 137 152 133 97 157 103 169 134 135 106 95 133 122 142 135 107 117 117 130 137 119 131 131 131 128 116 144 138 141 141 123 119 119 134 149 169 166 159 171 192 243 244 219 222
112 160 118 168 123 127 114 98 168 144 123 153 178 125 174 158 146 111 116 142 116 126 122 123 124 129 117 139 136 117 136 114 166 173 117 122 122 171 166 133 155 176 192 176 212 230 233 220 220
129 176 120 190 95 122 169 106 118 117 121 133 135 110 175 127 108 176 125 119 124 121 124 126 131 135 166 132 146 118 138 151 141 122 124 124 127 185 174 193 172 128 179 182 235 220 215 224 203
142 134 160 150 165 124 102 105 145 104 117 171 129 138 128 111 163 120 143 162 142 159 123 174 112 138 133 144 128 143 144 139 171 125 124 128 181 170 171 173 193 181 192 193 222 217 206 206 210
135 125 147 146 181 174 173 168 150 106 155 155 130 123 110 121 164 137 141 155 174 142 185 116 182 179 191 124 146 159 121 176 165 125 119 169 180 167 193 181 171 204 197 209 190 212 213 207 208
214 210 118 124 165 191 181 179 152 128 120 158 117 130 105 125 117 98 174 170 176 128 177 177 161 130 112 131 126 145 176 173 124 153 174 177 173 190 140 166 207 220 198 211 211 212 215 206 199
253 151 213 203 141 106 110 185 117 118 140 137 117 103 113 122 119 117 104 127 189 178 167 130 181 179 175 168 185 175 162 126 147 177 174 136 189 187 180 199 217 218 203 223 216 217 212 213 214
235 142 215 143 205 190 169 176 112 114 121 122 132 126 123 113 108 156 180 168 123 117 126 125 130 165 145 130 149 164 124 140 182 190 176 191 179 172 190 220 209 211 216 187 227 221 206 211 208
123 243 226 182 124 189 174 145 116 104 136 113 116 145 91 126 182 176 133 113 114 173 133 126 130 159 175 171 164 155 170 182 178 181 186 173 183 228 194 186 214 183 190 220 209 212 201 203 199
95 234 221 127 191 187 196 192 136 119 109 170 181 98 116 115 178 110 110 167 178 180 188 180 178 178 182 135 171 182 177 179 191 139 177 185 225 210 227 207 208 210 193 193 186 193 190 191 191
244 240 234 250 250 234 140 212 113 114 112 176 146 187 174 180 107 122 183 128 168 172 176 178 171 174 124 178 181 226 195 194 184 192 179 220 209 225 208 217 204 187 187 176 196 194 189 196 194
131 229 128 165 134 173 240 191 121 230 203 100 154 196 191 179 185 184 174 184 182 173 172 172 151 170 194 181 187 191 185 189 219 233 223 209 221 223 218 208 194 189 182 177 191 185 186 190 191
225 168 140 158 164 176 230 233 220 210 236 234 183 200 195 184 179 180 184 186 187 185 191 127 185 201 193 191 186 143 188 222 218 236 210 224 201 218 200 197 191 186 176 182 191 183 184 181 179
203 138 209 218 217 219 213 216 222 213 198 227 223 162 217 201 209 204 192 177 203 203 210 202 200 197 226 214 223 234 229 243 200 205 213 216 240 215 191 189 205 181 190 194 186 179 189 187 177
126 122 117 205 206 201 210 209 208 210 207 198 195 192 208 204 202 199 202 207 199 203 197 204 198 251 238 234 222 214 206 213 208 223 220 218 210 200 186 187 202 195 202 195 188 189 115 103 183
128 122 185 205 168 204 211 212 205 206 208 201 201 203 202 204 205 205 199 198 200 194 213 239 207 208 205 210 206 213 215 205 215 230 207 210 201 198 197 199 207 206 189 193 191 187 184 187 188
201 202 210 217 209 214 221 211 203 204 202 198 199 204 206 202 200 211 202 234 215 235 247 246 231 207 194 202 210 209 205 214 221 210 203 192 191 198 198 190 184 183 183 188 185 192 193 192 194
224 246 251 224 218 208 205 207 208 213 218 204 198 247 243 244 236 236 238 230 224 222 213 210 210 207 212 202 202 203 213 222 184 197 186 193 196 195 194 193 193 193 186 189 192 189 194 192 194
225 227 229 233 237 236 232 234 247 246 245 238 236 235 227 227 223 228 223 216 214 215 217 217 207 213 211 206 214 211 203 186 188 192 194 194 196 197 195 196 192 196 201 192 192 201 202 193 195
221 223 221 222 224 239 233 231 232 232 226 232 231 234 229 222 215 210 212 214 213 217 215 210 210 206 201 204 192 192 195 195 193 194 200 199 197 204 186 199 200 191 192 192 203 208 198 195 204
232 234 234 236 234 229 229 224 218 216 218 221 221 220 212 210 215 222 226 228 222 221 215 218 202 202 198 206 205 197 186 195 201 198 203 208 181 190 203 195 196 201 209 211 207 211 223 226 229
224 220 221 223 225 220 213 211 208 225 225 226 231 231 231 232 234 226 223 226 227 224 220 208 202 198 196 201 193 191 196 203 206 197 194 194 198 195 104 198 194 204 204 196 214 220 224 219 232
220 217 215 213 232 269 265 256 238 237 237 244 244 242 242 243 248 255 255 251 238 225 218 212 201 194 190 195 192 196 205 200 193 193 190 193 189 95 195 196 200 201 195 212 222 229 220 224 246
214 216 240 245 239 235 238 234 229 222 218 213 209 209 209 208 204 198 197 199 200 198 194 191 191 192 192 195 204 211 199 187 185 192 188 180 161 196 111 204 207 207 207 224 234 239 246 263 268
253 242 234 227 220 217 212 207 204 205 205 205 203 197 194 196 200 200 199 192 190 190 190 191 193 204 206 208 199 193 174 179 187 183 190 192 187 193 190 207 198 216 231 250 260 268 279 263 278
224 220 216 210 204 204 203 204 205 195 196 190 190 197 195 191 193 210 206 212 215 217 216 215 209 192 195 184 191 180 183 184 181 183 183 185 194 207 204 209 226 242 258 256 260 271 285 293 342
208 204 197 202 204 196 201 200 196 201 203 199 194 193 197 194 202 207 210 209 207 206 206 202 196 177 179 180 181 187 180 179 184 187 191 195 208 206 224 241 249 254 254 263 275 293 442 446 445
203 190 203 202 196 197 195 196 198 190 197 193 192 202 203 207 199 189 191 205 207 207 201 196 196 191 189 192 185 180 181 190 184 192 191 212 213 244 247 245 253 246 264 289 409 444 443 451 439
193 193 199 200 199 197 201 197 199 201 204 202 196 184 200 189 200 197 189 197 206 204 203 203 202 199 192 178 181 183 190 192 198 195 210 221 242 240 249 257 262 278 305 467 447 444 434 428 409

GFSSGP_2pvu_pres_036.txt.gz
Presure
126 125 123 127 125 125 121 98 90 149 158 104 110 135 106 157 138 140 107 163 124 144 142 135 109 130 115 181 122 134 129 147 108 143 126 120 166 165 140 125 117 126 118 157 165 215 187 174 138
150 135 136 112 127 117 109 127 111 132 101 119 98 144 165 160 122 103 142 172 176 120 131 109 145 124 126 126 129 126 131 130 133 135 143 185 123 138 158 128 123 123 160 186 191 189 206 145 218
145 126 124 100 109 121 112 131 123 119 109 136 167 168 123 104 129 108 122 128 112 111 156 124 145 122 126 160 136 118 179 120 127 136 142 144 120 135 151 151 139 129 194 195 192 197 191 221 226
136 122 140 137 127 125 113 124 133 131 122 129 109 167 168 160 113 111 174 109 121 117 109 179 122 178 178 170 165 172 123 127 189 118 178 176 148 180 174 125 126 182 197 193 192 130 241 195 231
109 129 121 124 133 111 135 95 177 133 118 95 171 158 173 118 123 115 117 110 166 123 120 121 117 179 190 183 141 133 177 182 175 187 174 181 183 167 125 133 203 185 190 173 168 204 234 167 227
122 116 126 137 124 131 124 166 166 129 153 147 168 158 129 122 109 113 123 107 117 131 175 114 125 123 123 130 150 135 130 134 156 171 162 135 159 125 163 183 188 179 166 165 218 204 218 210 228
136 127 128 131 200 173 146 190 182 173 163 173 170 178 110 135 114 176 112 109 176 170 173 103 167 178 189 132 124 126 128 134 162 181 187 170 173 200 199 197 193 190 211 233 234 223 227 215 233
136 134 130 139 133 197 190 189 174 194 107 109 108 111 121 117 110 109 110 179 120 106 157 172 171 171 114 121 183 128 186 170 174 178 126 174 179 198 187 172 137 183 215 205 226 219 219 193 203
114 133 134 143 161 211 204 193 180 175 146 180 181 160 116 174 110 120 119 124 149 117 132 185 145 124 173 163 185 112 172 170 177 138 178 206 182 203 196 194 186 193 239 219 205 216 213 193 197
137 132 132 130 237 224 210 203 249 182 191 155 162 165 169 127 117 123 108 149 155 137 108 154 184 136 155 168 175 177 176 191 164 182 183 185 192 177 191 204 208 222 204 196 220 208 199 188 186
138 238 196 240 250 212 226 221 201 192 182 149 136 136 111 124 121 131 180 118 124 142 182 197 184 175 184 177 186 169 172 190 189 179 193 206 145 234 230 227 216 216 220 204 224 194 200 186 184
132 135 100 111 216 231 238 253 216 203 196 190 114 118 128 125 135 185 173 187 187 187 189 188 175 187 182 170 171 177 180 176 194 205 202 195 207 208 228 222 243 204 234 202 195 187 193 197 181
232 223 161 195 187 232 227 222 224 130 165 156 164 126 185 190 209 190 191 189 187 190 175 183 196 181 177 181 181 189 192 203 180 171 201 225 234 234 225 204 218 215 198 222 200 194 191 193 198
243 227 238 233 160 167 189 191 135 210 220 164 194 192 192 192 194 231 237 216 196 185 214 209 175 190 202 198 188 197 234 195 196 224 241 239 219 208 205 216 213 211 219 193 199 191 193 206 199
229 228 222 232 221 221 224 228 226 226 229 229 218 217 226 225 222 201 208 200 204 209 206 206 210 204 199 196 194 192 192 144 230 227 227 208 213 206 205 203 223 198 195 188 190 194 190 185 180
225 227 225 215 215 226 161 115 137 212 212 212 238 221 210 210 207 204 202 205 194 193 200 201 198 195 191 193 196 218 229 226 211 225 211 207 208 205 206 212 193 191 187 191 192 198 194 183 184
231 218 212 216 171 117 143 206 118 216 213 209 205 202 210 210 203 212 204 202 201 200 199 199 201 202 177 178 156 140 192 210 200 203 202 203 202 210 185 191 193 192 193 197 196 193 189 191 191
225 230 214 205 214 139 120 204 185 205 205 205 206 206 210 203 201 200 201 200 200 197 229 237 227 185 201 187 186 200 206 212 210 210 205 203 209 196 194 195 193 196 196 196 184 179 181 190 194
230 234 224 229 209 204 204 202 204 213 204 202 205 196 202 201 210 209 234 214 204 229 217 218 224 214 225 202 210 214 209 204 208 194 195 195 194 194 185 195 197 190 191 193 173 185 191 191 188
235 239 240 237 240 220 223 230 222 215 209 209 210 207 215 236 232 227 231 224 231 225 226 228 238 218 219 214 208 207 215 200 198 203 200 205 201 184 192 192 196 194 192 192 178 104 186 192 193
230 228 227 227 229 227 228 231 234 237 240 237 235 233 231 224 217 221 222 221 221 221 219 214 218 216 219 213 213 205 201 203 196 191 192 191 189 190 198 198 190 186 193 177 133 195 194 202 203
220 221 223 222 221 222 225 225 223 225 230 233 234 227 227 230 223 219 220 226 225 226 227 223 218 217 212 211 217 209 200 197 195 187 189 191 195 207 195 178 193 183 194 191 201 195 203 209 219
225 233 234 229 226 223 222 221 223 221 221 219 221 221 233 246 258 261 260 251 248 242 236 206 199 200 203 197 195 192 189 189 191 198 209 215 198 187 190 193 190 194 199 196 197 192 210 218 218
228 225 225 176 217 214 213 214 221 224 236 247 253 245 226 211 207 209 205 204 205 205 201 196 194 191 186 189 193 194 198 209 218 206 188 193 190 204 192 193 196 194 194 203 165 209 217 213 228
217 215 214 215 214 255 256 251 249 238 226 216 207 208 208 205 196 193 196 197 192 197 206 210 218 223 224 220 216 212 206 205 204 187 199 203 199 193 190 194 191 198 202 202 211 210 226 276 272
208 209 214 235 231 221 220 215 212 207 206 200 202 194 198 204 206 201 204 209 205 208 204 205 205 205 207 212 213 212 213 208 206 203 202 190 191 191 195 185 198 209 206 214 238 268 269 255 284
245 238 229 219 219 211 206 203 203 196 198 196 194 205 201 199 197 194 203 204 202 198 207 204 202 197 204 204 210 208 205 203 199 193 194 188 191 185 191 196 203 208 244 273 264 255 288 303 300
222 219 213 212 203 199 205 199 195 196 189 199 197 197 194 195 199 198 184 193 197 198 190 200 197 200 193 198 194 202 206 202 198 191 191 186 191 198 197 208 225 247 279 243 280 281 316 350 441
207 206 205 193 193 198 201 199 191 198 199 194 195 202 201 193 190 192 186 190 211 211 226 215 192 193 194 185 198 198 192 186 187 187 184 193 200 217 237 248 277 270 264 284 313 316 455 435 413
206 201 197 194 196 199 194 196 196 190 186 193 198 189 187 190 210 220 222 222 227 228 220 222 224 218 193 201 193 184 184 185 191 185 195 236 241 245 265 257 254 258 277 318 466 441 421 406 465

GFSSGP_2pvu_pres_039.txt.gz
Presure
109 110 119 143 122 119 118 132 125 117 102 121 102 129 129 167 118 118 118 127 125 125 103 135 136 113 114 120 99 130 127 128 128 142 136 126 132 134 151 142 124 143 117 158 143 124 125 125 203
124 132 112 125 145 122 138 119 141 115 103 122 106 100 129 117 108 144 126 105 151 140 109 132 123 116 109 171 179 147 152 190 168 172 173 139 115 165 133 134 183 151 193 195 178 124 159 197 196
136 114 110 137 151 135 119 119 123 121 119 111 115 135 130 128 129 166 118 106 152 109 116 159 126 119 183 181 125 123 143 122 191 166 162 125 188 194 138 189 168 134 193 167 124 170 207 206 176
105 150 115 130 131 123 105 139 124 124 122 136 134 121 141 87 135 100 167 181 126 114 113 113 110 152 189 121 121 116 121 125 146 137 162 127 159 178 126 130 185 186 177 143 192 191 198 203 167
139 141 114 144 138 118 107 121 131 113 118 132 110 110 154 123 176 157 169 125 163 106 108 168 110 110 121 183 176 114 159 178 184 171 119 187 147 166 176 183 164 187 142 196 196 205 223 132 215
125 152 139 124 115 129 136 128 118 120 132 152 141 156 169 171 130 162 163 116 123 130 117 126 111 116 158 173 123 169 167 183 169 144 191 184 123 183 180 178 123 193 199 203 212 216 183 244 228
162 120 130 134 133 137 135 131 136 129 120 145 179 185 156 182 174 180 177 112 125 120 111 111 114 181 125 179 129 128 170 130 128 180 140 169 182 181 192 127 190 184 193 215 199 209 229 223 211
140 152 140 137 136 131 122 113 128 131 141 117 150 148 192 189 110 114 174 175 115 180 161 118 186 153 175 119 117 141 184 173 151 136 173 190 181 176 130 191 194 185 207 205 216 221 214 206 229
234 129 133 135 145 118 139 133 128 130 145 181 143 137 140 139 188 182 133 109 177 117 112 121 123 184 154 121 180 184 188 165 181 182 182 192 213 185 196 200 197 202 197 213 242 217 221 213 205
132 134 148 142 130 138 139 140 138 183 141 150 200 197 186 108 187 124 129 109 134 110 119 125 150 132 154 137 178 180 185 186 184 183 180 202 182 181 195 181 219 191 248 231 206 209 217 224 203
143 149 140 128 134 146 121 130 92 218 225 208 198 194 218 187 174 181 184 121 122 126 124 165 140 170 178 178 180 192 196 167 173 178 207 179 203 213 191 199 186 250 208 217 215 218 230 224 242
142 140 155 133 153 123 122 240 222 224 216 221 206 197 191 191 191 188 188 190 140 156 181 187 177 181 184 181 177 182 174 180 205 178 195 200 202 190 203 191 236 210 215 215 214 211 234 203 203
145 193 125 202 112 126 251 238 225 203 231 191 127 127 147 133 193 189 215 179 184 186 182 185 178 179 198 210 215 196 180 197 194 192 196 198 202 206 211 219 221 205 210 211 210 214 202 205 202
151 131 231 162 171 230 230 236 237 138 124 180 134 205 224 171 183 199 195 190 189 187 202 203 187 195 202 201 193 201 190 194 197 198 178 195 232 193 195 209 222 217 211 209 213 198 201 197 200
215 231 224 132 217 224 227 223 220 222 224 223 224 224 224 223 232 230 231 227 202 222 194 194 204 208 210 197 191 192 193 196 203 227 252 235 216 233 219 222 214 208 208 202 194 186 190 192 191
222 233 236 224 213 217 216 220 217 221 225 140 138 208 220 136 222 222 217 224 220 216 202 204 199 197 197 196 192 194 194 157 220 230 217 218 205 219 211 207 208 203 196 198 200 185 190 190 187
231 228 227 233 216 221 216 217 218 210 192 217 219 220 216 210 216 214 209 206 199 204 202 201 199 193 203 195 195 206 217 200 208 213 203 219 215 201 201 199 201 201 197 193 185 183 187 190 194
225 225 223 218 197 211 218 212 215 214 206 213 134 207 201 209 215 205 204 203 201 199 202 206 243 241 220 217 207 229 202 213 210 206 210 202 203 216 206 208 194 188 185 187 191 188 195 200 191
228 228 120 218 223 223 212 213 208 210 211 211 215 208 202 204 210 201 201 205 204 205 227 247 224 227 250 221 226 211 229 198 226 209 207 201 202 202 201 199 193 187 190 190 193 199 204 180 182
231 205 229 226 226 224 221 213 211 214 211 206 208 207 208 205 205 207 202 217 222 233 221 217 214 216 209 209 209 214 211 200 210 223 204 208 208 196 195 188 191 191 195 202 210 201 189 180 192
232 228 229 229 229 232 233 231 229 230 239 232 212 234 241 241 236 233 231 224 222 229 228 226 229 226 230 235 229 221 220 225 202 198 189 188 187 191 192 195 200 205 213 195 186 185 192 201 191
224 225 193 225 224 221 219 220 224 227 228 225 225 225 224 220 220 217 230 244 244 234 223 213 203 202 197 199 197 201 195 194 198 198 200 202 204 207 211 213 202 193 200 186 199 205 193 192 201
219 200 130 216 215 215 218 222 231 230 224 220 220 216 220 250 242 232 223 210 203 203 204 202 202 201 199 196 193 204 212 213 215 214 210 205 205 205 206 208 207 207 206 203 198 196 203 205 190
214 217 154 200 224 221 221 219 218 215 223 247 252 240 227 216 207 203 202 202 196 193 194 196 196 198 200 209 205 202 196 193 188 201 194 201 198 203 207 207 206 205 200 198 199 205 206 214 216
232 122 162 216 216 213 213 212 263 247 229 219 214 206 200 200 197 196 193 203 205 198 201 201 200 203 204 204 194 191 198 193 199 196 197 195 206 206 201 198 195 200 202 203 207 212 224 249 261
126 219 219 218 211 209 237 226 215 210 205 200 200 197 196 192 193 196 199 199 198 196 201 201 196 194 194 222 230 239 238 232 224 209 206 207 201 195 192 194 200 196 204 204 259 255 254 274 265
212 214 208 244 226 217 212 210 204 195 199 198 191 193 195 203 198 194 197 200 195 190 187 226 230 229 232 236 229 221 196 205 205 203 197 197 195 195 193 193 196 198 251 251 232 279 271 290 271
152 233 224 216 208 206 201 196 195 196 199 198 194 200 193 186 191 197 192 189 198 216 222 221 226 228 221 218 206 203 201 198 193 193 193 192 191 193 204 238 234 251 266 256 247 264 289 302 342
224 213 210 202 205 202 190 190 202 197 195 192 195 191 192 199 197 195 207 207 212 217 237 252 253 248 212 200 194 192 187 186 184 186 186 191 234 228 252 248 256 245 263 284 250 298 328 333 457
208 205 204 203 195 194 197 198 197 191 194 192 188 184 194 201 207 205 202 210 210 242 253 230 212 201 198 186 181 185 190 192 188 191 221 233 228 254 258 254 253 241 240 282 326 346 449 443 418

GFSSGP_2pvu_pres_042.txt.gz
Presure
117 130 123 108 103 138 133 147 133 119 121 113 103 83 93 122 88 117 104 123 98 117 98 108 171 122 150 114 120 177 171 160 111 170 141 123 172 135 181 184 129 141 185 187 156 138 162 165 144
142 114 123 106 140 111 142 107 131 120 126 108 121 112 95 116 120 112 132 136 136 118 114 104 111 141 110 115 179 193 110 118 157 137 124 137 147 167 124 183 150 133 125 124 123 142 123 181 193
149 120 116 148 120 125 109 138 138 137 121 113 117 132 129 116 109 135 126 138 100 129 167 140 171 147 109 116 175 118 147 167 116 125 172 146 130 159 172 181 147 129 181 117 202 190 202 204 195
135 108 133 132 109 139 123 138 139 129 111 132 126 127 116 115 126 106 122 135 96 122 181 130 170 158 168 110 110 177 118 178 123 180 101 180 175 183 166 161 184 173 184 134 202 207 185 192 127
140 117 128 138 128 132 143 122 115 131 120 121 118 125 129 131 137 133 133 141 152 143 142 151 109 119 162 156 117 176 112 118 126 186 161 187 133 163 169 167 191 173 193 182 175 195 126 169 204
139 128 138 130 124 144 152 128 141 141 142 109 139 137 135 125 129 131 152 144 145 182 180 185 151 111 127 111 97 117 142 127 167 113 123 109 136 179 174 192 192 182 200 202 196 195 214 216 201
118 167 116 136 155 135 146 121 132 133 131 121 138 130 133 133 137 146 142 142 150 154 114 175 124 187 115 116 153 118 123 122 103 139 119 181 180 194 174 176 173 188 189 203 199 206 190 216 231
146 128 136 143 120 146 137 132 140 141 138 136 113 138 122 129 138 128 141 192 125 165 179 142 189 155 181 92 125 118 123 128 173 179 185 148 193 190 185 182 126 193 174 189 199 200 192 251 214
220 134 150 136 151 144 145 125 132 132 132 144 135 133 134 136 136 173 164 148 186 183 175 158 103 110 125 139 121 126 125 175 178 172 192 173 184 176 186 194 200 189 209 199 197 175 243 216 217
139 253 156 182 198 152 217 139 131 136 132 116 123 126 136 126 200 147 193 191 186 182 176 160 184 189 178 146 156 125 173 175 191 177 172 182 196 190 208 194 193 192 202 203 202 227 208 213 211
156 125 141 151 137 144 144 150 150 125 136 107 106 112 138 141 147 159 202 213 178 194 197 199 185 175 152 133 185 179 174 174 173 167 176 173 182 206 202 215 213 200 191 222 232 210 215 195 215
258 141 140 154 138 233 147 138 145 138 140 140 128 138 142 208 186 207 193 190 180 186 146 179 184 188 170 180 198 187 170 191 175 194 195 208 195 202 209 201 204 204 253 240 194 216 204 213 212
148 149 154 133 137 151 204 131 129 138 176 135 138 172 227 211 214 182 192 200 167 186 184 179 180 179 178 193 184 177 185 184 182 189 203 209 194 201 128 214 231 236 187 207 213 215 215 215 210
153 144 146 214 238 178 148 141 246 189 133 157 199 224 218 157 130 196 205 205 201 201 195 192 191 189 186 185 189 200 195 202 201 199 198 200 205 218 207 233 218 213 220 217 229 216 217 211 207
141 165 141 171 227 149 187 239 148 128 189 230 230 222 219 205 203 210 229 201 126 125 177 196 224 203 200 194 212 195 199 201 197 203 209 223 229 240 219 226 222 242 218 212 207 206 211 196 195
238 231 218 139 126 165 159 156 225 229 231 233 233 230 223 223 219 119 135 124 230 213 205 201 205 212 208 201 193 198 200 198 236 226 219 198 227 213 216 206 224 209 203 211 206 208 212 212 196
222 174 149 196 223 225 209 181 220 220 219 221 220 218 219 161 177 159 221 211 214 209 210 210 202 198 195 196 194 198 219 225 201 213 212 206 204 199 212 207 204 209 213 200 199 204 197 195 193
224 165 147 137 223 222 219 215 209 208 214 208 215 216 216 213 213 212 212 206 194 201 202 197 200 198 193 196 238 238 190 219 210 199 200 215 196 205 212 209 192 196 203 203 194 193 194 197 199
214 222 219 224 226 219 164 218 210 206 216 208 210 211 207 209 205 206 217 201 202 202 201 200 201 204 237 226 202 223 208 216 201 205 210 216 226 214 185 193 193 192 195 198 201 200 206 205 206
226 225 222 218 220 219 213 211 215 216 214 217 211 210 214 209 212 202 200 201 208 231 230 224 226 219 215 228 226 229 235 236 218 209 196 195 197 197 196 200 203 204 205 207 206 205 206 209 209
225 225 226 223 222 221 220 221 221 228 223 220 213 210 226 234 229 220 222 224 221 222 225 237 245 237 227 215 209 203 200 204 201 199 195 192 196 203 203 196 189 197 194 198 196 196 201 203 207
224 225 225 225 223 226 187 229 230 231 232 228 224 220 214 213 218 223 223 218 235 230 223 216 211 206 203 202 200 198 206 201 201 206 206 203 200 199 199 193 194 191 195 193 195 201 205 203 202
230 231 228 226 224 226 226 217 221 216 215 213 216 220 220 217 216 242 234 222 216 208 201 201 201 200 195 196 199 203 200 195 193 193 194 195 216 223 213 210 213 205 205 205 204 200 196 204 208
216 216 215 215 213 211 133 199 217 220 220 218 233 246 243 233 225 217 208 203 201 200 194 198 203 201 202 200 195 194 210 229 236 240 240 227 210 206 202 199 199 198 196 195 196 225 206 213 218
209 211 210 211 212 217 121 206 210 210 221 236 224 217 211 204 200 201 195 192 194 194 197 203 199 196 194 225 228 226 228 228 227 226 209 201 198 195 193 191 194 196 199 198 220 250 212 251 260
215 217 222 223 216 208 200 206 205 222 214 210 204 199 196 198 192 191 201 197 196 193 193 197 201 217 222 243 253 264 266 261 213 200 192 192 188 189 192 191 191 194 208 208 206 251 258 241 256
217 213 206 206 204 204 230 222 215 209 203 197 196 197 193 203 196 198 197 192 194 196 212 216 217 229 236 243 246 231 213 203 198 192 184 181 189 188 184 192 203 247 238 248 249 250 247 249 245
205 214 214 228 234 224 212 209 202 197 194 194 191 200 195 197 191 195 190 203 211 212 205 206 207 209 217 218 206 201 195 195 192 186 186 186 184 192 191 249 246 249 245 255 250 250 263 262 292
228 231 226 215 211 207 204 201 196 190 190 197 191 193 193 196 184 203 205 204 203 202 208 206 202 205 206 203 199 193 186 189 189 183 182 184 203 208 248 247 239 237 241 232 242 250 274 271 320
226 214 211 209 204 201 198 192 191 194 190 190 197 196 196 206 203 201 201 199 195 219 222 224 211 211 222 207 196 182 181 183 183 183 195 213 220 241 241 249 243 236 241 253 267 274 268 337 405

GFSSGP_2pvu_pres_045.txt.gz
Presure
126 132 127 106 113 125 116 111 129 133 117 117 94 119 120 122 125 99 90 115 94 108 102 113 83 109 159 103 91 100 173 168 133 107 171 173 162 121 172 155 169 115 110 127 182 183 186 155 123
141 125 156 113 149 109 133 122 108 115 119 146 138 105 124 111 116 118 123 132 110 117 133 135 139 144 98 157 115 126 150 177 121 116 119 109 150 175 118 144 181 122 144 174 163 182 152 143 159
162 118 126 136 143 124 123 116 103 114 108 116 113 135 129 111 123 123 140 115 117 115 134 125 149 101 140 120 127 164 157 143 162 111 110 171 172 132 128 120 183 151 124 129 139 125 180 135 173
121 127 147 127 113 134 139 111 110 114 120 103 136 153 135 147 154 118 127 110 131 121 128 117 137 121 144 121 146 186 176 121 119 163 99 117 121 121 124 168 124 120 109 194 165 199 187 202 197
166 150 137 146 138 149 149 130 138 129 141 135 122 119 86 131 132 133 134 133 145 120 136 150 144 123 141 138 143 158 141 111 194 166 125 125 123 137 102 113 122 172 192 178 188 176 183 198 187
152 107 138 154 130 148 109 116 148 130 133 125 114 126 145 125 141 129 133 137 130 134 153 143 138 118 142 160 139 202 158 165 121 143 159 124 159 149 112 127 154 186 185 181 195 178 184 181 194
142 151 211 134 149 121 142 197 150 142 129 133 143 144 131 136 144 117 121 137 137 110 125 123 144 155 154 121 178 181 190 128 105 175 125 120 125 123 124 136 167 169 187 187 172 193 180 192 201
142 145 122 145 101 163 121 129 150 142 139 150 126 146 118 135 124 128 124 128 140 132 132 146 175 186 93 118 177 201 201 188 156 125 125 175 119 128 187 192 166 185 190 182 187 185 206 210 188
149 144 138 131 192 136 132 173 127 130 150 147 152 141 120 133 117 119 121 124 126 130 123 160 151 193 181 172 186 171 176 194 183 183 146 181 181 146 173 192 178 185 186 183 182 200 206 196 197
144 132 145 219 133 148 165 145 154 227 127 145 152 110 140 128 118 132 134 118 131 141 135 141 196 186 181 161 182 183 181 193 186 179 175 199 196 187 190 188 185 180 186 189 210 215 204 211 230
124 148 131 150 121 118 142 139 166 230 149 151 111 134 150 212 128 137 130 129 127 142 140 186 185 193 194 200 199 199 185 186 185 179 182 174 180 184 181 183 193 194 194 190 189 144 237 224 221
145 141 130 141 145 154 152 228 148 143 133 134 135 147 127 123 116 129 143 144 131 140 201 201 191 193 195 190 139 170 177 180 183 180 181 182 189 192 186 203 202 203 204 234 257 239 232 235 249
141 172 171 170 128 140 166 193 134 198 134 145 131 125 134 124 164 137 129 135 179 207 205 197 143 164 191 123 162 162 149 187 191 188 188 195 201 202 194 187 192 226 242 241 223 208 244 236 250
237 248 140 138 205 148 149 140 140 135 126 118 180 211 171 127 126 132 220 208 212 209 200 199 198 200 202 192 193 193 193 190 193 204 198 189 191 201 194 191 228 235 216 221 215 228 234 218 207
139 138 204 149 158 132 150 139 127 159 151 134 149 147 128 130 140 225 221 223 219 213 210 206 203 166 146 197 195 200 206 201 193 201 202 194 193 196 237 222 223 225 212 238 221 225 196 212 200
232 232 235 241 153 225 143 215 153 128 136 233 147 168 225 216 218 222 219 216 215 214 209 205 205 201 207 211 201 195 198 194 194 198 197 186 203 227 216 222 214 214 226 206 210 201 217 200 206
156 234 238 236 232 236 210 166 175 172 211 189 188 191 180 237 220 219 225 220 223 217 215 216 214 212 206 201 197 201 193 195 193 212 216 227 221 221 221 218 216 209 200 199 201 195 206 208 200
238 226 232 234 208 233 175 187 160 137 152 227 222 219 222 217 211 212 212 211 211 204 203 200 200 202 196 188 189 188 197 204 240 219 215 217 228 221 219 205 207 207 200 201 200 204 195 201 195
235 140 115 228 142 226 224 165 140 212 216 215 212 212 216 210 206 202 194 199 198 199 196 197 215 202 210 199 230 231 234 205 202 215 227 225 206 203 195 190 198 193 202 202 198 190 195 198 192
235 223 219 198 222 198 216 220 217 215 215 214 209 204 201 200 201 203 203 207 210 203 215 235 219 223 220 206 216 226 227 223 214 208 205 196 201 200 206 205 203 196 185 190 194 208 223 211 208
227 221 216 217 216 216 218 219 214 214 213 209 209 195 206 208 206 204 204 208 222 225 214 214 212 223 224 228 220 213 205 200 199 200 195 196 202 202 195 188 198 222 232 232 219 210 207 205 202
204 218 219 217 219 212 212 209 212 217 217 215 216 220 221 225 231 227 218 214 214 216 212 225 219 216 214 207 201 204 204 203 202 207 203 196 201 229 231 231 227 236 213 201 198 196 195 193 193
221 220 220 218 217 221 222 220 222 220 219 118 126 217 213 212 213 217 214 210 229 221 213 213 204 198 202 205 194 206 205 199 203 221 225 227 228 230 233 214 195 192 189 190 193 198 198 196 199
217 217 219 222 224 224 223 220 218 211 147 210 153 216 218 215 211 235 225 217 211 206 200 195 205 195 199 204 195 206 240 248 247 244 241 232 231 209 203 198 195 192 193 190 194 195 197 208 217
224 225 221 216 216 214 210 210 207 209 212 215 213 210 236 229 218 212 206 203 198 200 208 200 202 198 206 218 216 213 212 214 216 217 213 204 202 196 197 194 195 192 195 192 196 195 213 239 257
211 212 209 207 204 205 212 219 219 215 212 230 228 220 213 208 206 203 201 202 207 199 198 199 214 206 204 205 204 201 203 205 206 206 203 204 200 191 186 188 193 192 193 186 210 239 253 259 252
203 210 211 212 218 220 213 209 207 210 224 217 211 206 201 200 200 196 208 193 196 195 210 202 204 198 213 217 211 209 205 204 227 225 218 206 201 187 191 184 186 189 188 218 242 215 259 257 257
209 219 219 213 211 206 201 208 218 215 207 206 205 193 199 191 199 196 193 199 207 202 202 200 207 200 210 197 212 215 215 230 211 212 208 200 195 188 187 184 196 214 219 236 221 253 261 251 258
211 207 206 197 201 207 220 211 208 207 205 203 197 191 190 200 191 200 203 201 202 198 192 197 194 209 202 201 204 214 212 206 193 206 205 195 191 199 210 205 214 212 246 247 255 251 242 257 268
207 202 203 225 226 216 204 205 200 203 194 194 194 195 189 196 197 207 201 199 196 196 194 190 197 208 188 198 194 192 213 215 212 221 196 197 209 215 214 209 233 223 249 253 257 246 229 242 287

GFSSGP_2pvu_pres_048.txt.gz
Presure
139 124 142 119 139 137 126 133 137 141 118 123 115 150 140 142 118 114 127 119 120 90 94 123 108 99 126 129 129 134 145 128 127 139 114 160 131 173 162 116 112 120 117 186 109 162 121 116 194
113 119 127 125 118 155 136 103 130 111 101 135 124 110 111 119 124 124 129 123 115 125 118 103 110 119 130 111 132 127 134 113 143 138 120 139 159 168 145 117 121 114 147 148 145 124 105 162 132
117 129 138 132 125 144 141 167 134 123 137 122 108 113 107 115 118 129 119 112 106 122 121 143 115 120 101 112 114 130 129 135 139 143 132 189 188 188 151 125 162 143 171 177 114 113 78 121 183
140 143 116 113 118 147 151 122 114 126 160 137 130 116 115 119 122 115 95 117 118 149 131 142 125 144 135 118 117 112 133 117 136 140 146 142 216 195 122 108 115 117 121 115 114 84 122 120 217
210 117 131 134 141 130 136 117 131 118 124 130 138 126 128 133 115 110 108 131 141 135 134 128 119 142 119 141 136 133 132 137 128 111 149 185 166 101 188 194 117 184 177 117 130 117 126 211 192
149 128 128 133 133 135 124 123 138 132 134 145 140 140 132 149 138 114 130 132 124 134 138 109 131 135 138 111 129 126 133 151 180 159 170 187 200 203 192 190 186 154 199 194 169 161 157 198 184
152 117 140 135 128 129 152 131 128 156 153 141 138 143 150 116 138 140 122 133 142 129 135 131 123 131 139 143 119 141 155 129 153 186 217 199 196 178 182 181 156 191 190 197 199 177 178 188 182
140 140 130 147 166 147 115 108 122 136 162 134 132 151 146 115 137 130 118 137 150 139 140 126 122 133 125 121 140 112 145 152 146 200 178 178 203 190 210 184 190 191 200 184 189 179 190 93 176
119 133 130 140 137 137 123 133 134 162 205 171 131 132 129 138 138 122 135 126 125 136 180 137 131 122 135 141 143 137 144 171 177 172 184 188 184 186 191 175 182 196 185 182 187 187 187 190 202
139 121 130 130 129 141 131 146 156 134 131 189 127 134 123 141 146 134 133 116 122 113 140 124 126 129 127 149 126 140 173 171 189 183 177 188 126 144 154 184 194 179 192 188 191 200 195 213 200
147 138 130 112 141 128 113 158 127 132 135 132 168 116 114 162 154 131 101 132 131 132 124 137 127 127 128 136 136 167 182 184 115 199 177 121 130 122 185 184 186 198 191 188 221 208 196 206 193
147 123 127 116 141 121 127 131 139 138 140 136 207 138 132 124 118 132 133 235 129 143 116 208 124 131 133 204 193 182 189 200 189 142 179 185 183 191 188 190 189 193 205 202 193 210 198 229 224
153 132 118 126 120 134 151 139 134 173 140 136 151 179 144 131 145 120 180 211 139 128 126 127 142 149 159 166 197 187 192 185 185 188 165 186 193 194 191 192 203 205 193 204 200 199 242 247 243
116 133 126 137 137 130 138 136 143 173 231 155 249 231 157 126 125 169 140 136 194 132 157 133 133 183 148 196 191 192 192 188 140 188 193 195 195 194 198 202 208 203 202 196 228 231 247 228 218
116 137 133 125 129 142 146 224 149 172 143 237 140 131 130 117 121 126 127 128 129 168 153 127 202 206 209 204 199 198 193 193 198 193 195 194 202 197 191 210 209 212 238 221 229 227 218 211 213
143 228 219 131 139 130 240 146 242 136 155 222 133 147 131 148 148 215 126 149 154 153 223 218 208 205 205 201 205 204 202 199 203 206 204 200 201 195 189 230 254 228 213 226 216 207 205 209 207
228 233 237 190 153 204 239 153 243 232 202 141 177 170 175 134 137 188 184 171 210 212 203 211 208 213 214 215 213 208 207 195 189 191 195 194 193 227 231 214 226 230 217 207 213 206 207 203 192
224 233 233 233 236 131 198 229 179 162 149 164 163 206 133 131 144 222 214 226 215 210 203 206 214 209 206 202 198 199 199 193 196 196 202 205 224 225 236 218 214 202 204 202 203 204 202 196 200
232 230 234 233 234 233 227 164 225 214 219 219 211 216 185 213 212 209 218 210 200 200 206 204 202 199 193 193 194 205 217 212 215 226 214 231 219 212 202 202 205 196 201 203 195 192 218 235 230
239 235 238 230 206 226 223 201 139 139 160 216 213 211 211 211 208 208 205 203 198 202 195 193 192 200 200 207 234 217 213 215 226 220 211 205 197 196 195 201 202 202 217 241 240 236 234 217 208
228 241 228 228 221 221 225 217 182 217 219 219 218 213 213 211 171 207 150 198 192 194 197 202 209 223 230 214 223 229 218 210 205 197 195 199 197 203 206 236 245 241 236 232 228 215 208 203 201
232 220 214 224 217 209 213 219 218 224 225 216 204 201 201 202 200 203 206 214 223 228 226 216 216 223 227 220 214 205 197 193 202 202 197 203 227 225 220 222 227 217 216 211 206 203 199 193 193
135 135 178 223 217 215 209 212 213 209 209 203 206 212 215 218 219 221 219 210 213 217 217 231 226 215 212 204 194 198 209 199 215 224 226 231 230 221 207 206 204 210 204 207 203 200 194 189 193
185 207 212 208 210 186 215 219 215 220 212 217 246 214 215 213 212 214 199 212 220 231 224 214 208 201 194 205 206 212 211 225 214 206 204 203 203 204 206 207 208 206 205 206 205 203 197 194 193
208 206 204 211 218 219 213 211 219 208 216 205 199 207 211 212 213 212 236 226 217 210 203 199 196 208 200 207 220 210 211 208 200 206 210 213 221 213 233 224 217 205 220 211 199 195 198 208 203
216 214 212 215 216 217 212 212 207 204 205 201 211 212 208 210 228 217 209 206 202 204 200 209 194 201 213 213 205 201 199 191 195 193 198 201 196 220 229 228 218 224 216 205 201 202 212 224 225
213 216 211 207 210 207 208 205 204 203 213 211 207 208 210 217 211 205 204 190 202 205 197 205 208 210 203 201 196 193 197 191 185 191 199 208 216 229 233 232 220 208 202 203 227 223 218 229 228
205 210 199 204 207 205 203 212 216 215 207 203 211 220 207 210 203 196 201 198 194 202 206 205 212 200 198 195 202 188 188 188 188 193 200 204 213 229 229 210 203 201 203 200 220 230 240 247 257
202 205 206 206 206 216 217 215 210 207 207 217 212 207 203 206 195 199 199 197 195 209 203 205 206 209 196 195 192 184 190 199 192 180 192 206 217 240 209 203 202 210 211 219 244 234 247 267 264
210 210 214 219 214 210 206 207 210 225 217 209 201 203 197 199 201 197 192 193 205 201 198 198 196 200 196 202 189 184 186 199 195 189 202 210 228 236 202 203 207 213 224 236 242 247 259 257 259

GFSSGP_2pvu_pres_054.txt.gz
Presure
115 268 99 109 127 165 149 169 100 131 128 118 122 148 146 133 124 137 105 117 110 113 101 112 143 132 111 126 111 139 138 131 133 108 115 110 127 121 114 103 112 133 147 136 121 133 129 143 95
214 138 123 143 124 146 146 122 131 143 147 126 129 132 140 133 133 112 122 131 127 120 113 119 129 107 122 120 120 122 133 152 119 124 123 141 153 122 142 126 125 118 123 127 145 147 130 159 143
191 132 140 116 112 133 152 141 146 139 137 137 133 123 109 131 108 113 118 137 131 113 107 101 126 118 131 96 109 144 136 120 128 149 157 142 146 128 125 111 127 131 117 123 136 132 121 148 142
264 132 140 133 151 164 121 148 141 148 129 143 141 124 132 122 142 100 121 118 103 146 107 130 153 137 137 123 126 140 113 143 124 127 104 119 126 141 112 123 157 117 135 113 150 129 148 193 193
148 248 129 144 149 120 148 141 119 146 133 95 125 137 144 138 139 133 132 129 109 122 104 135 134 124 154 149 137 141 130 142 137 118 125 121 117 139 88 113 134 116 121 175 139 182 157 205 189
263 132 123 130 140 137 143 144 154 125 109 103 145 147 137 146 113 133 132 125 138 120 140 138 129 153 138 143 151 136 141 129 127 133 136 123 133 123 117 113 131 178 145 134 148 172 209 196 160
267 141 259 240 155 135 263 130 143 132 150 151 125 156 130 195 152 138 117 142 142 134 137 135 144 147 116 127 129 117 116 135 132 126 120 119 117 130 128 146 137 138 143 182 205 185 196 191 182
115 126 255 135 154 103 143 141 141 121 150 143 116 137 128 140 127 119 132 125 130 138 136 143 134 142 140 153 146 137 154 142 122 122 113 130 177 124 123 129 135 143 149 181 190 179 183 180 180
265 252 210 240 149 139 136 146 139 171 140 155 160 154 127 125 115 146 141 141 143 134 126 139 139 136 121 127 140 114 118 126 135 145 130 137 128 128 147 138 197 143 156 198 189 181 188 179 174
262 247 254 130 142 178 133 162 154 136 150 118 164 148 133 124 137 116 126 132 137 150 129 141 125 148 153 150 133 127 143 128 142 134 128 181 140 126 167 144 172 193 184 183 178 185 181 180 188
255 241 257 246 137 262 220 145 240 158 147 162 120 110 118 117 128 111 117 128 95 129 127 122 144 141 135 127 131 143 147 135 133 153 143 133 133 164 194 195 183 189 199 184 193 188 190 181 188
250 255 263 123 263 223 110 150 158 139 124 123 152 123 120 120 111 141 137 140 152 126 120 118 130 127 124 124 140 119 128 129 136 140 127 150 213 155 195 181 186 186 202 193 185 185 187 188 190
257 260 254 258 242 252 152 204 203 129 136 134 146 124 124 124 114 125 164 139 130 127 115 118 118 124 140 170 119 126 139 136 132 147 194 197 190 173 180 198 185 187 191 188 179 190 194 190 203
143 242 248 128 253 188 257 170 238 132 122 133 139 129 125 118 125 133 126 132 125 135 149 118 118 135 170 127 120 124 132 133 128 201 171 198 184 187 185 187 187 183 189 188 189 193 210 197 206
255 146 148 151 118 142 202 163 123 135 124 129 140 126 123 124 132 145 124 132 124 125 135 135 146 139 125 122 128 133 134 130 196 194 192 186 197 194 182 181 182 190 191 204 202 204 190 195 199
258 226 176 240 143 129 131 120 143 144 142 130 126 124 133 132 133 135 118 140 131 130 133 135 137 144 125 194 194 154 136 201 194 177 193 188 185 183 184 189 193 211 204 204 200 199 199 224 222
124 124 165 198 177 116 133 134 146 151 128 126 122 131 130 123 124 134 168 126 121 168 206 158 198 200 201 134 180 204 201 195 194 180 183 191 189 186 210 205 203 202 198 195 200 225 218 214 204
135 254 175 160 121 130 116 185 205 230 153 121 124 128 130 138 198 169 135 133 230 197 184 205 213 213 215 193 204 208 189 184 198 216 202 190 205 209 196 197 192 199 211 223 217 213 200 207 224
264 233 232 223 234 133 113 126 125 233 226 127 139 135 141 125 134 214 215 232 133 224 225 137 189 199 193 193 202 113 207 188 197 213 205 205 194 196 192 201 205 229 221 208 195 220 213 214 205
231 227 227 228 232 229 149 152 203 204 177 139 151 163 219 216 216 205 218 217 212 165 148 217 219 214 214 142 220 206 207 205 197 203 203 198 197 202 228 229 220 198 195 220 212 210 203 203 194
227 221 228 227 222 227 240 230 229 236 223 237 233 223 220 216 215 216 216 215 176 203 205 207 205 206 204 201 200 196 194 196 198 199 207 217 231 215 212 199 195 213 212 205 202 204 198 199 197
228 220 215 220 222 218 222 226 230 208 228 222 218 211 215 216 213 218 213 203 217 212 203 206 212 208 208 210 206 203 202 207 228 218 227 221 203 196 192 192 208 207 204 206 200 192 196 194 193
221 224 223 229 228 221 234 237 235 222 224 210 216 216 217 217 220 214 211 209 204 204 202 198 200 203 207 208 225 220 216 232 229 207 197 196 195 192 213 211 201 205 202 199 196 193 194 193 197
232 224 232 198 227 230 225 227 223 225 220 200 214 203 209 213 216 216 211 210 201 203 211 219 216 222 213 220 219 223 208 197 198 196 193 196 211 208 203 201 198 194 203 195 190 184 184 192 208
223 212 227 232 235 224 221 221 212 132 210 208 205 200 208 212 211 212 219 233 214 209 218 219 213 234 217 207 200 193 197 197 192 193 212 212 203 202 197 194 194 198 198 191 183 191 198 214 247
218 222 224 223 229 231 226 224 209 210 210 209 215 208 206 207 218 214 210 206 214 241 204 218 214 203 197 196 190 197 196 193 199 207 206 198 191 191 192 189 183 197 196 190 196 198 224 239 235
230 224 221 213 214 207 207 209 213 214 212 217 218 224 231 210 201 198 212 228 204 205 218 210 196 199 190 194 197 197 203 226 211 208 192 200 207 209 193 196 201 194 193 196 201 223 246 236 213
239 224 219 218 221 218 220 212 214 216 213 214 209 209 209 216 218 221 211 207 219 212 205 198 192 191 196 194 194 211 204 204 203 201 203 200 203 205 202 197 193 197 197 213 223 247 234 218 206
215 221 219 226 214 211 210 207 206 208 205 203 207 212 213 209 208 204 202 219 210 202 199 192 188 195 193 191 191 196 198 196 198 203 208 211 198 193 190 195 204 205 215 231 237 220 213 212 217
206 206 214 210 203 204 205 206 208 210 225 217 210 207 202 205 199 222 219 202 196 200 195 193 193 192 192 193 195 198 202 207 210 210 200 187 191 192 193 206 203 212 217 232 230 214 214 214 249

GFSSGP_2pvu_pres_057.txt.gz
Presure
125 310 316 249 138 163 155 145 117 137 152 115 124 138 127 118 124 129 130 118 127 130 134 107 105 115 131 107 117 137 116 112 132 121 110 125 140 143 111 121 141 131 142 150 116 119 140 145 138
211 194 122 271 150 152 176 188 117 153 140 129 121 126 137 122 136 122 121 142 139 132 103 120 103 126 131 118 119 118 117 114 117 126 128 131 105 142 117 132 135 129 137 133 131 101 135 115 111
311 139 237 190 129 260 129 159 184 144 114 119 143 134 144 125 121 141 118 124 119 137 113 108 134 112 103 118 111 123 132 133 108 117 134 149 134 126 138 148 126 107 107 135 140 140 115 111 113
290 300 294 118 292 274 149 178 160 113 159 109 162 136 137 128 140 133 136 110 111 139 119 107 141 122 108 102 162 128 138 117 140 137 129 117 120 142 122 109 128 137 110 147 112 110 111 139 176
122 286 281 158 124 178 132 165 269 136 138 132 150 146 134 131 134 153 143 133 104 131 132 134 131 110 127 104 138 142 140 143 119 156 140 140 111 121 140 124 123 118 117 116 141 114 125 187 124
110 141 100 169 119 151 141 148 145 126 127 121 136 149 123 117 147 154 166 132 138 124 105 123 116 126 135 112 145 138 157 141 151 148 152 158 134 136 118 128 121 124 129 138 122 155 143 162 203
110 261 122 196 142 116 119 148 227 158 146 94 86 136 119 145 126 133 142 139 140 136 129 133 122 137 116 127 139 151 121 115 119 128 127 130 154 134 126 127 135 138 128 127 127 144 141 179 191
111 134 205 266 99 129 266 138 130 123 137 121 159 141 117 143 135 151 131 163 117 103 133 130 142 142 124 160 144 136 150 127 150 127 153 117 114 141 120 135 125 142 141 132 148 114 204 187 183
272 271 265 268 243 213 266 136 134 238 143 195 152 146 135 154 126 121 124 120 138 145 147 138 135 118 141 146 115 147 125 150 140 144 131 133 163 149 135 148 133 169 184 190 151 207 200 169 182
269 269 274 257 256 129 218 139 134 206 246 142 133 139 160 166 149 137 129 141 132 132 127 133 116 140 141 120 132 126 136 135 131 123 144 126 115 127 134 136 135 126 174 184 196 201 189 185 190
270 263 265 259 253 256 145 150 255 149 140 144 136 165 156 149 170 244 109 150 117 132 115 126 109 132 145 128 121 119 124 124 125 137 143 124 131 191 147 132 131 159 150 189 193 181 187 188 188
259 253 261 262 245 245 249 251 150 140 152 172 150 136 156 115 132 124 133 129 126 139 141 131 131 122 125 148 127 130 125 120 135 131 120 122 124 139 135 128 215 204 203 177 200 190 185 190 186
268 252 229 199 255 187 199 250 134 148 147 158 201 144 159 125 124 117 112 125 121 108 131 132 127 131 127 124 145 134 140 136 133 136 123 210 182 135 157 202 205 192 190 180 183 189 183 186 184
243 250 242 243 247 245 129 247 258 208 247 251 150 187 178 125 123 156 124 122 122 120 112 127 134 139 131 124 128 131 131 136 168 194 121 124 193 138 201 204 194 182 205 186 182 186 182 191 193
240 103 243 252 246 250 229 237 131 230 239 250 131 124 132 124 208 139 117 125 116 119 129 127 123 122 128 126 130 187 138 192 194 200 126 190 132 207 141 201 208 198 178 184 185 189 205 183 199
237 267 236 245 244 216 180 247 239 215 233 235 148 115 168 132 137 125 123 118 125 125 125 124 117 126 129 135 126 139 193 194 196 194 204 205 209 191 188 195 190 184 184 192 216 185 193 201 194
240 262 171 188 140 131 151 148 193 228 124 218 131 143 118 132 136 127 125 122 123 120 120 124 130 155 139 122 169 127 169 203 204 194 211 198 204 190 183 186 182 196 189 183 192 196 192 196 209
249 164 256 182 128 230 200 137 132 121 171 128 125 202 141 132 120 124 125 127 120 122 123 205 220 127 131 126 197 213 203 206 191 191 207 193 187 184 202 205 197 190 202 205 198 194 200 221 218
267 245 114 158 110 245 231 228 231 222 146 215 147 151 152 125 142 127 128 126 126 119 193 127 203 157 206 231 127 201 192 216 207 203 203 198 191 192 181 203 205 191 192 199 225 244 201 206 194
218 167 245 148 120 120 136 200 220 124 128 126 131 132 149 193 190 125 157 131 131 167 220 233 230 226 211 227 180 192 198 207 195 192 192 208 206 202 191 194 199 206 212 202 210 202 194 219 209
255 233 230 222 214 236 188 194 117 125 131 126 129 180 205 200 199 174 196 165 212 215 212 221 221 219 215 215 210 208 211 215 210 209 204 195 197 202 206 215 226 214 205 200 198 207 205 200 199
237 226 227 225 223 226 217 228 204 199 217 202 210 209 203 210 210 213 225 220 219 214 222 192 209 209 206 209 204 201 209 210 204 196 199 217 215 219 218 209 199 203 197 211 211 204 207 206 195
237 219 223 217 215 222 227 221 228 224 220 215 225 222 220 226 223 219 149 219 232 231 218 212 203 219 213 204 207 204 206 217 217 215 224 217 209 201 194 198 192 216 207 200 195 193 199 196 193
228 217 218 217 218 222 216 218 222 222 230 226 221 227 233 234 224 211 212 203 212 212 213 212 211 209 204 205 215 217 215 208 218 209 202 196 194 196 193 205 211 206 195 193 202 204 208 201 196
223 229 223 226 228 231 226 232 227 232 226 227 217 209 222 214 164 191 211 213 214 209 210 209 219 209 198 223 211 210 215 205 201 198 194 192 196 219 212 205 202 197 202 193 193 202 197 195 189
223 220 215 208 216 236 223 231 226 217 220 219 218 145 197 207 208 211 221 216 215 217 210 194 196 220 216 202 207 208 200 201 193 195 192 191 207 202 200 196 195 198 209 210 209 191 187 201 209
233 216 218 225 220 216 221 219 225 227 222 222 211 210 210 211 210 216 225 214 210 205 215 224 219 200 202 200 204 200 194 193 190 192 188 193 195 196 203 215 210 204 198 190 198 204 211 208 214
226 228 224 228 215 209 204 207 207 209 216 214 222 216 211 211 211 207 201 207 217 215 202 214 204 209 201 200 197 194 186 190 187 191 195 195 201 208 207 195 196 192 195 205 205 206 220 227 245
212 215 219 223 228 221 218 211 214 216 212 208 204 203 204 206 203 216 216 206 204 203 202 219 207 195 199 194 192 186 184 190 190 193 199 204 202 190 186 197 198 198 204 197 211 214 231 227 217
206 211 210 213 223 213 215 204 205 205 200 203 201 205 216 218 217 213 204 203 201 222 218 202 195 197 193 188 186 193 192 191 197 202 203 193 183 191 206 191 203 196 199 213 211 223 219 217 217

GFSSGP_2pvu_pres_060.txt.gz
Presure
118 322 283 101 349 171 237 137 159 124 106 185 139 126 115 145 129 131 111 122 136 130 140 129 136 85 130 130 102 114 137 103 102 123 95 117 98 132 108 106 119 128 127 112 132 142 109 142 120
225 300 111 207 117 222 235 116 121 132 129 109 138 162 149 115 166 139 124 127 117 84 141 128 132 131 124 130 112 125 124 110 132 110 103 127 99 115 112 128 125 129 118 137 117 109 121 139 106
296 115 298 321 270 315 186 116 295 139 241 142 143 206 150 135 152 163 133 117 123 125 123 101 121 131 126 97 140 134 143 113 122 123 132 134 149 109 135 158 118 133 140 124 122 113 132 110 98
263 108 291 109 306 155 308 116 136 262 217 133 122 151 138 141 123 146 151 102 133 139 126 149 130 121 143 142 139 113 101 144 112 140 138 148 118 109 146 129 132 117 109 135 131 116 115 116 130
166 103 281 298 293 293 152 287 134 247 148 153 114 136 136 124 150 125 144 142 128 107 125 138 150 108 118 127 137 106 122 146 122 143 132 154 141 119 116 129 109 125 120 122 116 118 120 114 119
108 286 268 289 273 119 276 235 207 191 131 136 198 151 186 184 147 137 140 147 124 137 132 133 114 115 154 122 129 142 135 141 123 120 150 142 127 125 132 142 139 148 137 115 130 125 118 129 136
102 272 128 278 128 107 277 151 274 141 177 238 184 175 137 131 124 158 147 159 150 145 142 135 106 127 125 135 148 130 149 128 150 146 146 136 112 114 156 136 122 120 121 124 132 129 130 132 139
290 269 170 109 132 103 125 133 121 217 100 155 132 145 179 157 137 151 94 159 122 107 152 138 130 145 118 137 111 132 132 142 120 122 127 146 128 160 138 136 142 154 120 123 130 151 190 124 231
275 262 270 276 124 107 115 126 105 163 242 144 282 119 130 129 165 125 128 117 132 134 133 138 133 127 142 139 132 137 150 145 134 137 128 127 124 124 122 119 126 133 117 122 155 136 134 128 140
268 262 265 272 209 260 259 225 108 228 239 156 139 146 134 136 119 134 147 141 131 187 146 137 142 133 137 128 130 124 127 149 132 128 118 124 120 120 128 130 131 126 111 119 160 210 129 136 203
261 250 258 269 257 251 239 254 111 139 177 140 151 149 128 133 129 139 258 134 137 127 120 128 139 136 126 118 130 123 119 120 125 118 125 193 123 130 129 135 128 135 173 127 133 200 203 173 208
259 267 258 250 271 245 248 230 255 250 192 152 153 121 140 134 139 137 134 148 143 108 150 121 151 126 129 122 136 132 125 130 145 120 123 123 127 139 127 132 151 150 124 138 155 141 217 184 209
258 266 253 252 253 250 249 259 240 228 175 218 145 140 205 143 141 202 153 130 139 142 139 119 130 132 119 113 123 121 125 117 121 125 114 116 130 129 127 167 173 183 181 215 152 211 203 188 192
251 266 247 248 249 250 256 255 244 242 239 154 137 216 219 215 166 144 140 134 144 152 113 118 134 114 114 122 124 124 124 119 117 127 122 135 131 126 201 188 155 134 210 205 200 218 219 190 191
246 240 257 243 151 142 243 250 140 256 141 211 221 219 168 134 142 146 193 130 146 123 121 126 115 118 120 124 125 124 124 112 116 125 177 126 121 192 188 213 180 198 207 208 189 128 190 202 199
245 239 257 250 249 255 242 243 221 133 199 257 241 158 148 148 130 150 142 126 127 120 128 121 120 131 125 126 123 118 125 127 138 197 191 124 162 191 190 183 188 216 209 189 204 191 194 186 191
237 234 254 248 253 190 232 244 243 242 239 133 236 218 221 214 209 130 138 121 130 129 127 122 121 125 124 116 120 126 124 139 191 219 154 212 202 167 203 210 206 202 202 192 213 196 187 191 200
243 244 252 250 149 216 245 181 228 223 233 211 224 213 227 160 224 141 144 120 119 166 131 120 124 125 120 126 119 121 169 238 209 232 219 214 219 195 198 202 197 192 211 197 189 204 192 194 227
266 279 261 246 244 249 171 171 136 117 171 236 133 127 208 132 146 116 120 122 125 119 117 126 127 126 117 126 125 128 203 205 198 196 218 207 189 186 183 195 191 204 194 203 208 196 231 217 195
263 246 247 243 235 182 149 134 165 228 127 144 141 201 175 125 209 171 136 139 183 123 112 117 192 130 143 131 159 207 208 177 206 208 208 210 194 208 195 191 201 203 201 202 217 216 197 196 196
260 250 242 235 242 193 206 110 167 229 154 213 210 213 188 171 123 142 198 202 165 172 212 214 175 202 174 177 214 222 217 210 211 207 204 203 194 201 213 209 194 209 215 202 201 194 198 204 210
254 234 223 224 223 214 226 205 214 129 128 129 142 132 124 122 134 133 134 204 207 194 204 202 211 218 207 212 214 207 202 211 211 198 195 201 199 201 199 227 205 208 203 192 200 216 211 204 201
238 220 222 226 225 220 225 217 223 220 219 217 219 208 215 217 201 202 200 200 201 209 206 222 205 210 218 211 213 213 205 210 213 212 203 208 216 208 209 197 206 201 198 193 198 193 201 204 205
244 232 227 226 221 216 219 219 210 221 222 220 211 208 209 210 211 215 225 230 232 229 217 202 216 209 206 206 205 204 205 208 208 218 213 205 210 200 204 205 196 195 191 190 193 204 215 214 194
238 223 232 222 223 222 234 237 226 215 217 220 213 215 225 224 225 224 219 202 205 208 212 213 213 213 210 210 221 211 206 205 235 202 207 205 203 201 197 196 193 188 190 203 207 209 187 187 200
231 227 219 220 212 211 222 232 229 233 233 223 230 227 221 220 223 211 214 217 218 204 204 214 207 213 218 205 195 212 223 218 208 201 202 200 194 194 194 191 185 196 201 208 195 190 196 203 198
218 218 226 217 215 212 213 213 222 218 211 210 211 210 209 206 153 211 210 213 214 215 212 215 203 200 195 219 211 211 198 203 201 195 198 195 191 193 190 186 195 205 198 187 194 202 201 200 197
223 218 218 220 222 227 223 216 212 212 205 208 209 206 210 207 206 209 209 213 214 215 210 201 200 210 204 201 210 197 202 197 191 199 193 195 196 191 192 204 197 192 190 192 199 202 204 199 203
241 206 221 215 205 221 232 214 214 211 215 208 208 212 212 213 214 211 210 204 205 203 206 217 209 203 200 203 211 204 195 196 194 193 195 195 188 200 199 192 188 192 195 196 198 205 192 208 208
215 265 204 217 217 212 213 222 223 225 229 225 211 209 204 202 203 206 208 213 218 211 205 203 199 223 221 206 200 193 198 193 195 194 190 198 204 195 184 186 195 187 200 209 212 189 205 210 217

GFSSGP_2pvu_pres_063.txt.gz
Presure
225 147 297 283 320 296 149 207 145 289 224 166 255 116 110 126 140 105 146 107 141 132 126 121 117 124 139 130 130 134 130 124 131 134 135 125 105 119 117 115 110 122 123 130 133 100 101 115 141
248 301 242 286 301 207 246 336 329 283 133 126 251 141 133 120 129 129 133 118 142 125 140 132 117 125 75 130 137 135 135 126 131 108 131 130 109 109 119 115 101 145 138 116 135 133 141 137 122
234 280 267 217 304 282 179 174 255 272 315 200 263 102 117 148 121 128 135 140 137 122 105 134 125 138 121 122 135 131 131 134 127 139 137 98 122 137 126 120 112 141 97 122 116 119 118 104 118
279 270 332 306 296 312 113 95 139 262 292 295 261 131 138 238 129 148 152 121 129 84 137 148 114 129 139 118 119 131 141 135 101 120 106 107 98 121 110 117 135 103 139 124 147 118 138 139 123
311 348 323 304 289 230 216 211 301 116 291 267 239 122 150 214 101 241 92 136 116 118 151 179 137 133 132 128 146 131 137 108 127 127 114 114 150 118 128 131 141 117 116 143 121 115 124 120 137
381 331 311 262 282 294 117 275 281 128 108 263 253 177 237 131 141 146 137 141 137 112 125 163 161 119 109 144 144 130 115 147 144 116 126 132 147 139 146 124 142 112 112 111 132 128 114 145 117
367 322 302 260 104 144 207 270 264 255 250 253 201 136 139 146 223 194 112 141 141 151 148 139 158 146 137 144 126 102 137 141 125 121 142 124 134 142 134 126 134 121 121 130 130 148 121 124 129
333 307 295 260 284 277 103 109 269 141 129 225 248 218 149 224 216 149 150 231 134 232 151 148 138 138 157 169 111 144 151 110 107 111 127 133 127 123 137 120 122 123 124 124 146 116 124 128 134
327 302 276 262 276 263 262 111 112 117 219 118 124 150 202 227 140 116 118 151 119 168 112 141 139 130 118 122 127 135 117 145 133 129 125 121 141 138 131 110 118 120 121 120 119 126 136 128 128
314 299 261 266 276 259 258 262 268 99 109 117 117 146 194 133 125 128 167 121 180 178 139 194 148 148 134 154 134 147 116 129 118 126 128 133 118 125 117 119 130 118 117 121 122 131 128 132 146
309 277 261 265 274 256 252 259 267 131 248 230 107 242 231 125 117 127 173 132 140 131 142 103 217 148 159 137 126 126 118 116 104 116 130 136 132 122 120 123 124 117 123 128 127 128 133 195 192
293 260 266 261 259 254 248 249 243 266 265 224 233 226 236 244 139 143 146 138 228 127 127 133 139 157 143 161 158 108 118 124 120 122 120 123 118 117 124 131 121 128 126 127 122 190 206 202 194
276 257 268 256 255 268 245 247 250 250 240 256 235 250 202 196 137 204 155 202 132 165 197 126 142 139 149 142 136 118 130 121 119 116 123 122 126 117 121 114 131 129 121 196 206 202 160 196 204
260 254 265 254 254 257 249 249 250 247 245 240 228 221 239 225 125 120 148 218 149 220 154 141 188 129 153 137 124 164 121 122 116 116 128 124 121 124 126 133 133 164 150 204 184 199 159 212 199
260 248 255 249 244 254 263 254 254 239 243 260 241 185 232 223 217 139 140 129 233 162 127 149 131 128 140 146 126 118 117 119 118 127 125 122 129 127 125 127 204 219 176 183 193 211 204 193 219
259 241 254 249 241 248 240 243 252 242 246 259 222 213 213 201 135 141 132 145 149 115 128 136 165 144 141 118 121 124 121 122 120 128 125 126 130 126 132 199 200 195 205 206 210 205 211 202 195
245 246 251 260 242 246 211 241 252 231 239 218 215 210 151 174 214 134 145 219 193 136 131 235 124 126 167 126 127 120 118 124 128 126 129 128 136 183 132 202 207 217 220 215 219 194 187 202 197
263 254 253 258 243 246 246 239 231 174 246 122 217 215 210 209 213 143 128 220 125 184 228 126 117 199 117 133 117 124 127 127 129 124 136 182 131 133 203 219 186 198 216 221 197 202 203 197 199
260 277 259 255 242 247 236 236 226 226 232 232 146 213 132 135 201 162 219 208 213 222 235 226 120 118 131 142 126 122 119 130 136 180 134 133 173 201 192 202 207 194 211 208 201 192 198 235 195
264 251 250 244 241 243 244 150 238 235 172 232 214 196 217 129 222 218 211 208 219 215 217 122 125 126 124 121 123 130 131 140 199 190 200 213 211 206 210 221 206 198 189 193 194 204 205 224 203
262 234 234 247 233 250 230 233 241 219 166 183 211 146 222 182 168 174 174 133 122 129 125 123 122 128 130 171 216 182 153 141 212 210 210 215 211 207 201 201 199 197 199 206 210 217 207 196 201
248 226 222 223 222 244 232 236 203 203 124 218 228 215 213 139 159 134 122 118 121 193 134 131 187 211 201 205 196 208 211 211 205 208 212 205 199 198 198 203 203 205 204 214 206 198 202 199 199
236 243 203 219 226 223 222 230 121 239 223 139 127 127 131 198 216 214 211 125 127 127 134 201 208 197 199 214 213 203 207 206 215 222 209 212 219 213 209 223 217 212 208 202 205 195 199 199 197
228 250 239 201 219 213 213 218 219 217 227 226 219 223 218 217 204 203 210 221 210 201 200 204 178 161 236 209 208 215 209 211 214 221 218 221 211 204 219 208 202 206 204 201 196 193 195 196 201
257 219 224 231 220 216 220 217 214 209 218 218 224 224 224 221 217 213 213 219 226 231 214 215 207 206 204 206 205 207 213 212 215 215 200 214 224 206 206 205 201 203 200 197 199 194 198 195 192
219 241 216 219 223 219 213 218 229 227 223 228 221 217 220 226 231 227 227 226 225 213 216 216 213 209 202 205 211 207 210 205 203 220 219 208 206 204 205 200 200 197 197 194 194 203 200 190 191
228 219 277 213 214 213 218 214 216 214 211 214 226 232 228 220 224 221 216 210 159 209 209 212 214 215 211 210 214 201 201 205 222 209 208 204 207 200 197 196 197 194 195 201 203 192 190 192 193
214 220 230 258 210 221 218 217 224 221 214 213 218 218 221 222 221 217 215 215 213 214 212 210 209 206 202 198 199 204 209 201 201 202 206 212 194 196 194 197 193 202 206 195 191 191 193 197 197
217 218 218 243 268 205 214 216 224 233 214 212 209 210 212 211 210 216 219 217 219 216 206 203 202 203 202 206 204 198 195 196 197 212 199 199 197 194 198 197 209 195 191 194 185 192 196 199 210
177 207 214 238 271 244 204 206 221 212 214 211 218 224 226 215 214 212 213 205 205 204 201 210 211 210 205 201 201 202 205 211 214 201 198 196 197 199 201 199 191 190 201 184 198 199 208 203 210

GFSSGP_2pvu_pres_069.txt.gz
Presure
222 140 248 197 245 239 114 288 286 352 342 283 350 442 218 322 213 245 98 124 129 157 148 129 145 144 126 143 140 128 122 96 108 118 135 134 132 141 99 123 132 128 138 142 96 113 128 113 95
133 234 143 232 237 89 195 301 341 337 337 243 230 269 316 235 187 131 206 125 339 128 133 134 126 147 108 130 133 122 139 110 106 121 122 124 124 120 134 139 139 142 131 124 137 103 109 132 118
220 196 238 238 130 245 280 291 320 328 318 376 283 318 290 301 237 198 123 200 245 130 120 124 122 125 128 114 84 84 120 144 136 128 128 127 134 127 97 141 124 132 137 141 117 131 108 105 121
92 235 241 224 222 273 342 320 315 343 351 382 329 235 282 302 218 126 203 201 124 274 104 120 132 125 143 134 135 134 152 110 132 156 111 130 127 95 139 113 132 133 135 98 104 111 109 127 117
229 245 223 209 228 164 323 257 157 337 249 318 308 270 287 234 257 223 212 238 201 306 122 93 126 135 135 147 134 145 138 140 134 136 95 129 136 123 140 100 102 105 123 108 117 113 120 135 130
226 160 236 197 358 320 210 96 324 295 305 333 290 179 112 232 237 208 212 228 155 156 164 130 200 167 125 111 133 108 126 122 138 122 102 143 128 133 123 127 142 147 140 130 117 118 121 133 124
221 218 93 296 317 89 90 224 225 299 120 296 238 155 107 122 212 238 286 212 174 145 184 172 191 179 121 137 139 143 150 148 140 137 141 137 95 155 140 144 123 121 133 144 133 119 128 131 97
221 216 217 260 106 86 288 298 274 271 101 232 110 249 246 209 208 124 183 212 205 167 130 179 147 111 145 141 139 143 141 123 128 140 153 133 118 143 163 127 139 146 116 121 122 121 113 121 116
216 225 222 309 291 268 286 291 268 256 257 269 297 147 228 209 225 111 235 212 208 192 184 132 181 140 123 118 119 130 145 108 135 128 133 146 158 127 146 149 159 120 139 126 124 121 143 130 111
209 203 332 298 275 272 266 265 204 256 257 251 273 108 230 213 179 141 235 191 205 173 196 159 151 144 155 120 133 150 184 181 145 142 140 133 152 178 134 135 128 118 126 111 143 122 147 118 125
199 374 308 271 264 282 271 256 248 252 246 246 245 248 190 220 212 121 216 199 231 203 189 191 175 188 184 162 162 121 126 141 134 112 154 124 142 116 148 142 119 114 122 120 118 121 114 118 118
225 298 272 263 274 297 269 252 242 273 259 245 238 258 205 244 250 231 217 199 191 191 120 134 132 157 166 112 186 127 113 118 149 151 150 185 135 119 137 124 112 139 146 113 110 112 119 117 124
228 274 265 266 271 266 252 246 241 261 265 251 238 230 176 131 122 149 238 222 201 192 195 192 132 145 151 187 125 170 132 158 127 125 196 157 117 120 146 127 145 123 141 116 115 117 117 119 152
219 279 263 268 252 254 270 247 238 244 255 270 247 234 169 133 111 114 194 257 241 203 195 196 197 171 119 195 203 168 188 158 187 159 128 128 148 120 128 218 154 137 124 117 109 121 119 110 130
177 280 264 246 253 254 266 239 248 238 244 256 268 243 237 117 117 125 116 209 141 221 225 218 128 169 141 138 130 127 153 125 126 125 138 204 208 215 146 134 127 126 124 118 121 117 125 128 126
188 293 268 243 253 243 256 224 217 240 249 259 279 251 243 158 126 118 170 126 223 196 163 125 119 136 199 187 150 195 145 133 126 144 202 177 136 140 122 160 121 127 112 118 121 127 119 126 144
209 272 282 262 258 248 247 256 251 242 249 259 253 244 228 235 207 233 241 235 184 219 168 122 126 194 160 136 130 176 132 132 125 130 141 137 133 130 202 158 121 119 115 120 119 122 167 126 135
181 250 285 275 255 252 239 238 245 239 252 236 217 226 218 233 216 208 221 215 220 236 158 213 204 205 192 205 221 132 185 160 130 123 141 117 125 120 130 116 156 182 122 123 127 128 134 196 128
218 250 252 259 260 249 233 226 236 239 212 132 227 223 209 207 217 214 220 208 220 206 219 134 134 134 135 135 132 135 135 132 145 145 136 137 132 138 205 120 126 203 195 134 207 187 185 193 204
185 239 244 230 261 251 240 229 236 211 214 229 211 211 205 208 211 212 216 152 135 208 222 232 223 211 157 163 159 180 201 135 135 134 151 126 120 125 204 173 127 189 193 191 194 194 200 206 212
176 209 249 240 220 243 249 237 238 237 237 108 162 215 207 213 130 202 200 199 207 200 212 218 223 217 134 161 132 133 120 126 171 176 176 214 207 140 168 158 163 202 208 169 173 212 217 218 217
172 213 209 240 239 214 229 225 238 247 231 240 203 209 215 205 205 209 201 212 206 203 206 195 213 220 204 212 208 197 175 182 161 140 138 190 152 181 209 213 146 194 213 224 222 222 223 218 210
196 210 200 248 230 216 231 226 227 228 230 225 125 118 158 112 130 172 120 133 125 212 121 127 215 215 127 213 210 216 212 126 131 182 144 191 167 201 205 207 234 221 216 217 219 221 210 207 224
179 187 193 225 242 216 228 219 225 225 220 233 202 215 127 211 115 128 219 211 220 181 202 206 202 207 213 214 207 211 137 159 208 208 205 204 206 216 232 216 216 213 214 220 208 215 204 206 217
192 197 208 205 218 242 226 221 222 217 222 223 234 226 227 212 211 184 217 209 219 209 208 209 212 218 209 203 212 211 209 203 209 208 220 235 214 217 214 211 216 218 204 212 208 204 216 221 212
196 194 182 173 190 208 251 235 211 219 227 223 220 221 231 223 221 222 215 214 218 212 214 221 218 209 208 210 212 215 216 235 216 202 214 214 212 215 213 222 206 204 222 204 222 218 214 206 200
183 196 174 202 208 210 220 278 248 221 219 216 216 233 228 222 221 222 225 223 223 221 221 224 226 223 220 226 232 225 221 218 215 216 215 214 207 207 209 210 212 196 199 214 211 224 203 203 199
182 169 184 201 193 198 205 226 263 250 234 224 225 216 219 216 221 231 235 230 229 225 221 216 225 224 214 213 213 211 211 215 216 211 207 207 208 211 210 207 213 210 205 222 205 200 202 202 194
171 171 187 173 200 189 196 203 246 254 268 245 209 217 227 229 221 215 213 216 213 214 214 215 215 212 214 214 211 209 206 206 206 205 208 214 205 206 207 204 203 222 213 208 219 204 200 196 202
197 168 196 170 192 209 197 212 180 227 230 274 261 225 213 226 241 227 220 222 221 223 226 221 210 206 204 205 202 205 215 215 211 197 200 199 196 209 214 210 206 225 204 195 195 201 194 199 196

GFSSGP_2pvu_pres_072.txt.gz
Presure
141 84 207 125 111 143 188 260 258 255 249 150 159 350 310 325 359 339 301 191 73 138 180 196 191 132 126 112 124 128 121 135 135 117 125 117 124 137 138 128 122 116 122 125 128 127 106 121 143
171 115 138 236 250 264 210 253 244 216 266 94 344 137 244 411 253 167 197 178 140 83 105 147 128 163 120 150 143 127 134 112 117 137 128 118 127 111 107 140 140 104 128 132 141 135 141 141 134
130 222 243 168 249 131 191 112 234 358 338 279 376 297 284 295 226 210 176 199 175 171 132 119 213 216 134 116 116 122 134 142 83 95 107 110 109 116 119 125 122 129 134 134 123 139 134 126 128
214 107 238 224 116 130 100 232 305 313 264 255 255 317 312 257 245 199 203 192 199 189 218 112 131 173 323 316 176 124 123 78 107 106 107 118 128 141 130 127 131 127 132 134 124 127 133 137 129
203 180 185 202 95 238 351 366 303 283 247 234 216 229 229 244 119 224 179 182 192 175 168 206 193 171 185 228 185 120 127 109 116 97 126 129 155 132 144 116 142 141 120 128 137 131 102 118 127
234 232 199 204 235 236 377 336 280 348 95 218 207 211 218 140 218 202 186 222 81 175 183 187 162 160 200 158 122 121 134 137 133 141 142 141 136 110 129 141 125 129 131 119 128 128 141 129 134
226 241 80 230 236 346 337 288 284 130 88 88 263 213 205 232 172 216 195 243 192 170 168 179 172 195 102 125 203 133 129 141 134 137 149 142 144 145 156 120 125 143 149 164 140 143 108 131 121
109 222 224 233 369 327 81 293 89 274 166 234 218 204 98 120 215 104 217 199 198 177 171 181 181 124 177 107 191 131 129 230 133 142 147 149 142 130 110 147 144 142 131 143 138 111 140 165 133
215 223 222 222 159 144 290 325 241 236 246 209 289 203 134 111 155 196 262 212 196 191 182 194 185 183 164 142 143 121 199 156 134 185 149 144 123 127 132 130 145 141 149 140 104 156 144 118 135
225 217 217 213 288 281 282 273 256 261 257 281 175 203 182 110 216 222 272 213 185 170 178 180 187 179 149 138 143 174 111 127 165 127 135 101 142 140 142 141 138 135 123 105 148 148 125 122 141
210 206 220 201 289 288 291 280 246 226 257 211 192 212 191 199 128 250 247 183 173 188 193 136 192 186 188 182 206 142 180 130 123 189 141 145 125 138 102 125 130 132 133 135 108 126 127 115 143
203 218 224 254 287 279 299 259 253 272 220 225 176 270 297 201 190 109 234 200 201 179 182 135 198 194 181 176 186 158 156 188 193 156 186 123 128 121 202 182 143 147 148 150 135 145 135 128 112
197 203 211 274 277 253 265 252 240 260 233 237 245 238 298 200 200 223 103 216 223 156 207 128 190 191 193 172 184 185 181 169 162 120 155 123 142 123 143 148 191 169 147 117 125 139 126 166 193
209 199 214 287 260 250 289 256 248 251 248 319 232 259 205 253 275 206 175 207 193 198 160 192 185 191 186 153 144 153 157 132 123 157 184 138 147 161 120 132 151 145 125 207 122 148 143 165 131
210 201 210 279 259 251 296 230 240 240 199 226 300 263 270 286 207 223 258 206 128 210 192 183 195 193 198 192 162 118 117 180 187 184 182 187 189 119 152 127 126 125 129 207 173 121 124 118 204
202 195 197 288 263 256 251 227 221 211 214 214 237 295 264 267 295 214 246 119 186 187 179 118 183 187 190 195 182 189 180 178 122 127 171 187 127 141 125 129 164 150 201 183 134 120 139 119 118
199 200 179 270 290 274 259 233 223 205 219 220 277 251 273 251 266 237 113 157 115 115 122 151 196 179 190 188 158 153 169 125 188 126 126 179 181 133 123 162 184 129 132 116 139 113 125 184 134
194 205 217 256 239 264 249 273 228 220 218 249 269 230 262 254 260 253 121 117 130 184 197 124 129 189 145 191 156 120 128 185 127 189 151 201 133 131 135 119 150 167 135 119 138 132 118 203 167
203 196 196 219 242 263 248 238 244 255 229 243 211 238 254 230 230 232 248 134 126 175 198 191 185 192 128 193 125 123 194 136 202 153 143 132 166 202 137 137 148 189 137 118 118 180 205 175 129
198 185 189 223 241 228 253 245 241 244 206 242 213 217 211 242 226 223 215 237 239 236 199 207 218 209 205 205 201 203 200 178 133 197 134 136 139 159 190 123 121 140 201 191 181 145 201 200 194
199 188 200 197 252 228 248 241 237 238 248 239 214 217 214 201 204 225 220 224 224 226 234 212 244 222 212 213 174 213 209 169 170 175 175 150 122 157 131 184 133 161 169 168 162 200 175 193 176
199 188 185 201 211 245 227 233 242 240 234 206 118 211 196 226 206 210 221 224 228 229 221 234 213 229 216 215 212 203 204 131 184 180 194 195 196 193 124 190 220 141 192 148 182 195 206 202 216
189 191 180 191 223 199 240 231 237 241 260 240 227 122 206 185 209 168 196 203 200 212 200 208 209 203 202 200 228 225 210 208 135 153 206 205 123 190 201 134 163 199 211 212 200 203 236 216 210
183 186 191 180 202 184 200 240 222 226 227 241 241 218 218 210 119 211 117 117 175 179 197 210 202 200 202 212 204 210 216 223 225 223 222 214 221 215 214 203 204 206 205 221 235 218 217 222 218
186 193 186 193 197 195 195 257 237 227 224 218 225 235 222 214 204 139 119 205 138 182 191 201 202 209 173 212 211 211 212 205 209 210 207 206 204 206 210 204 209 223 225 219 220 221 208 212 212
195 197 195 163 199 192 169 201 258 252 236 225 222 224 225 225 222 213 214 213 217 212 216 205 213 222 222 205 205 206 209 209 211 202 217 217 215 233 236 214 212 219 215 212 205 207 213 212 216
197 193 184 167 199 174 196 195 184 206 260 237 213 223 224 224 222 224 223 221 221 222 224 221 215 217 215 212 218 227 228 210 208 216 236 218 226 216 209 218 217 213 211 214 205 210 226 216 229
193 191 172 183 172 179 178 188 207 206 204 263 238 242 221 216 227 230 230 227 213 217 217 223 229 228 229 227 230 237 244 244 234 225 222 211 213 217 210 206 208 213 206 196 207 203 208 209 219
187 188 177 168 202 175 187 183 193 190 202 211 239 237 296 250 218 218 229 229 220 221 216 217 224 219 217 218 220 224 223 219 219 210 206 207 204 205 219 212 198 200 202 198 211 216 218 209 211
188 185 179 189 195 173 174 187 195 187 195 209 202 240 237 320 269 221 218 215 233 222 219 216 217 223 219 219 221 215 216 229 195 204 206 213 215 217 207 203 202 205 204 232 223 219 223 219 211

GFSSGP_2pvu_pres_075.txt.gz
Presure
122 98 184 227 256 253 221 159 260 253 201 129 250 365 360 363 323 103 352 288 216 75 106 82 113 191 156 114 196 168 124 146 119 128 112 120 131 135 130 134 133 129 134 108 118 125 123 125 113
182 188 126 148 245 158 260 260 213 262 252 373 234 357 193 230 220 100 318 256 220 194 205 155 97 95 141 197 210 121 111 219 208 130 131 124 133 129 140 132 134 138 134 144 116 136 132 133 139
134 124 242 211 172 172 257 255 255 174 354 308 327 333 261 269 270 353 235 224 223 205 206 193 176 172 174 115 131 175 214 192 105 143 128 120 130 133 142 133 120 124 132 118 122 140 128 111 127
174 178 161 141 247 250 248 258 415 252 85 100 291 294 246 260 222 240 215 202 212 192 180 173 193 171 178 209 120 134 177 275 231 177 146 137 139 118 90 89 130 122 119 128 125 146 131 139 141
226 246 236 240 238 81 245 217 309 324 271 253 252 275 264 245 236 215 193 205 198 191 187 171 178 143 162 198 138 158 228 249 257 273 131 126 140 143 121 120 112 142 134 146 130 140 132 129 119
162 153 200 209 230 237 245 90 326 216 231 272 257 272 247 223 234 208 200 193 201 180 181 165 97 173 169 173 185 141 122 221 233 246 122 122 108 139 140 142 120 125 139 142 141 144 144 117 115
229 227 231 155 87 239 222 304 290 335 259 242 228 89 90 93 209 200 181 191 170 161 165 212 170 143 162 178 193 148 132 185 196 216 228 121 128 126 129 134 146 145 144 122 124 120 138 143 143
223 221 223 225 234 131 216 310 309 305 154 219 231 95 89 195 195 194 180 185 174 164 164 164 169 157 160 225 161 190 173 208 196 133 234 135 137 90 139 135 139 142 148 149 133 148 98 161 129
223 218 222 193 223 216 322 311 291 300 211 230 211 167 220 174 209 195 128 179 171 172 168 163 166 169 167 149 157 118 186 146 186 206 164 186 140 143 146 145 140 151 152 139 138 132 133 145 132
212 209 221 192 230 311 306 204 277 308 238 254 198 214 210 182 192 196 181 138 168 173 169 169 181 163 179 174 160 146 194 165 186 206 206 133 135 173 124 136 147 114 152 128 132 128 134 130 124
214 208 217 227 235 311 300 304 254 230 233 216 201 222 198 220 202 186 154 214 190 169 165 177 196 188 175 167 181 172 166 161 160 141 110 188 130 197 139 203 157 124 144 129 134 131 118 122 135
204 217 212 228 210 292 289 301 284 241 230 208 203 204 197 209 171 182 189 159 180 195 174 179 162 172 180 117 170 166 170 192 197 207 187 127 121 113 129 212 179 125 109 133 130 138 143 135 205
205 204 215 219 202 296 284 277 277 223 244 207 194 209 205 196 187 197 178 172 237 99 181 190 164 198 178 164 174 182 185 173 179 169 184 165 181 182 147 171 128 127 128 140 170 185 152 137 171
206 201 209 218 187 307 281 262 275 269 246 214 184 194 205 217 184 215 183 176 233 233 108 181 169 181 170 178 193 180 176 180 180 158 126 205 199 172 148 134 121 126 157 169 172 126 118 166 171
206 200 209 211 232 312 248 271 266 235 203 185 179 232 201 197 210 206 216 197 222 229 197 105 180 179 168 182 179 172 183 191 119 183 205 191 178 184 124 129 181 178 180 156 191 131 124 192 131
207 200 208 194 195 306 276 269 211 236 223 213 194 235 236 266 280 213 184 186 215 206 189 213 203 183 172 182 179 177 177 193 182 118 118 131 137 197 184 136 179 130 169 139 131 187 172 131 132
175 202 202 205 187 277 292 236 262 226 225 228 214 206 221 267 322 255 202 179 216 211 192 153 185 180 165 123 184 153 192 200 190 184 187 136 181 125 184 183 167 130 165 162 124 138 115 123 151
188 196 196 198 189 268 287 259 227 246 210 222 214 201 247 276 261 274 238 191 184 193 159 121 120 121 119 143 177 174 183 187 195 193 188 183 152 170 166 125 135 185 132 131 125 131 134 121 125
201 199 192 200 200 217 238 274 240 226 221 219 229 250 241 266 282 261 272 195 202 197 125 117 116 195 189 184 183 189 176 112 111 146 114 122 156 182 135 190 158 177 140 131 225 141 139 169 117
196 195 187 202 193 227 250 230 266 255 250 229 257 215 246 263 267 253 256 283 221 215 154 127 123 121 181 195 195 176 180 192 192 189 181 187 188 130 184 136 175 145 155 139 145 120 130 135 139
191 193 196 186 198 192 201 242 258 253 260 260 236 227 229 238 232 249 255 236 227 234 226 220 197 192 194 176 194 192 201 191 189 191 187 185 183 184 165 172 149 136 208 164 128 158 196 197 164
178 186 192 199 191 187 194 212 235 237 250 259 249 229 226 216 235 226 224 244 233 230 211 193 200 157 203 183 171 187 174 185 183 184 189 133 131 197 198 200 139 187 202 195 194 202 202 211 202
180 171 195 184 195 185 199 206 249 238 224 258 245 225 215 194 222 147 178 232 221 238 245 207 202 193 188 222 198 188 199 125 118 191 193 198 197 203 198 204 197 196 204 202 200 195 199 211 205
187 176 184 190 174 196 181 204 204 258 233 232 252 229 226 217 180 227 213 154 224 224 226 241 155 121 234 233 224 103 237 242 240 244 240 219 210 209 210 212 206 197 200 202 213 211 205 207 204
186 178 179 192 193 192 194 187 209 200 267 229 230 251 228 223 218 221 214 210 203 159 159 212 216 124 183 217 223 212 210 212 212 208 214 222 223 221 223 220 211 210 211 211 215 216 231 224 214
195 180 174 195 183 183 176 199 193 199 212 274 249 226 223 241 219 218 212 214 129 213 216 201 225 133 210 206 211 200 213 210 212 221 219 216 216 214 208 206 216 207 218 241 231 219 214 214 207
196 183 175 193 195 184 178 186 188 190 194 213 235 267 257 226 223 252 221 221 223 213 208 207 210 211 204 209 213 211 207 213 220 220 206 209 222 227 223 224 235 234 235 211 219 213 207 213 214
165 188 179 193 194 183 174 187 180 185 207 208 189 240 239 237 256 253 226 246 222 224 226 222 217 222 225 225 231 236 237 232 231 228 227 230 208 228 219 222 223 220 213 205 207 219 212 205 202
168 184 183 191 190 189 194 189 192 179 187 194 203 203 210 239 238 310 349 235 226 230 233 240 240 230 218 207 210 215 241 218 221 300 220 226 210 201 213 212 218 210 213 210 213 204 203 203 203
195 195 187 176 191 192 184 198 201 191 191 179 189 193 201 207 228 242 285 297 247 225 218 219 233 192 209 165 183 197 214 223 204 198 212 197 204 205 224 208 220 218 215 210 211 209 206 205 205

GFSSGP_2pvu_pres_078.txt.gz
Presure
130 136 118 153 167 120 258 222 168 167 255 274 266 266 264 261 374 263 371 271 337 90 78 235 196 191 107 192 204 206 111 133 148 143 150 125 137 131 128 125 132 107 134 127 132 133 116 133 123
224 182 115 179 160 203 215 201 259 189 255 227 262 375 326 362 355 79 234 336 356 315 103 104 225 209 147 158 90 206 199 188 180 169 139 144 123 150 126 108 115 123 110 140 105 124 120 133 121
204 130 116 208 159 174 237 243 200 202 246 306 348 314 334 278 281 290 331 323 280 241 196 103 213 198 184 196 112 110 110 139 172 195 124 133 136 201 128 130 127 116 139 137 144 133 133 133 135
157 151 199 160 142 244 253 248 251 249 246 148 92 89 92 250 296 290 312 367 246 239 226 193 199 184 191 182 157 201 194 118 116 196 187 196 128 187 133 121 131 139 136 141 134 117 124 125 119
143 242 187 245 234 167 243 149 233 293 285 278 266 288 121 256 265 275 278 233 222 221 208 197 203 176 169 200 179 187 204 184 186 116 200 241 289 181 214 151 186 117 134 136 126 133 117 122 146
246 199 168 196 230 230 237 233 222 347 204 187 269 285 240 232 257 271 236 153 161 199 193 191 175 192 197 96 177 171 179 169 157 186 127 131 225 247 165 128 213 226 140 144 121 128 133 127 131
240 234 227 225 227 231 221 298 351 295 289 256 222 235 238 238 231 90 192 195 211 191 158 107 174 193 194 157 168 171 189 190 180 187 167 152 207 217 227 171 126 123 142 136 135 142 140 112 125
235 226 190 226 223 230 227 281 337 331 258 251 221 260 238 225 210 98 207 193 205 196 165 177 105 174 160 173 173 163 153 183 184 183 129 114 139 207 213 199 234 221 133 142 124 139 134 139 143
221 226 216 215 225 224 236 282 328 328 176 247 238 247 235 228 218 202 211 193 197 180 187 169 176 158 161 156 148 138 174 97 149 179 197 189 144 185 199 123 187 156 181 143 141 134 196 140 149
216 213 222 211 214 226 225 298 350 316 246 246 230 215 233 203 214 204 164 140 199 179 184 183 171 150 154 166 173 172 124 144 137 145 111 157 137 187 161 197 132 187 141 184 135 176 221 161 134
212 213 203 212 212 217 222 298 312 300 248 238 224 222 213 215 212 214 200 200 170 199 186 175 177 170 169 154 132 169 146 140 132 176 177 178 133 144 195 195 202 211 205 173 220 125 108 119 203
218 209 208 211 215 216 265 302 254 285 238 221 226 242 218 213 207 210 171 172 205 177 183 195 161 161 164 180 168 165 122 126 174 136 167 171 172 166 104 135 192 139 143 126 121 136 218 178 102
214 207 203 212 210 207 313 315 312 262 231 211 225 234 204 196 197 204 191 156 189 171 172 169 168 165 194 170 175 158 185 172 180 163 195 205 170 176 182 199 137 192 143 122 208 207 124 135 185
183 175 205 208 207 208 309 286 279 275 225 218 226 237 206 196 173 207 203 159 190 174 178 155 162 154 140 163 170 161 174 159 158 174 171 184 157 187 187 185 177 177 199 166 210 134 123 149 117
203 203 199 210 201 201 266 278 284 270 224 206 219 181 227 174 196 188 189 191 182 200 160 164 152 104 105 175 190 179 172 179 191 178 155 184 178 130 183 187 182 189 171 189 183 189 135 131 135
213 199 167 201 212 204 200 279 285 279 223 209 208 187 225 206 211 193 189 191 180 175 205 161 166 162 180 190 166 184 165 181 185 169 187 176 124 175 194 181 191 184 182 136 129 125 127 151 149
218 209 187 205 206 198 196 307 265 256 244 212 213 219 208 224 206 188 207 192 188 183 173 220 182 169 171 172 184 164 164 165 190 181 189 178 190 122 119 123 127 186 183 122 166 187 192 182 123
171 173 199 204 206 194 184 307 217 221 237 236 224 210 220 187 229 250 212 239 187 186 178 172 233 187 177 169 177 173 135 199 137 127 170 173 182 189 173 174 187 154 171 186 186 152 165 145 184
177 202 205 203 201 197 184 196 282 272 231 218 195 230 192 195 221 238 302 233 227 188 184 182 197 219 212 184 120 116 172 173 169 170 168 170 171 176 122 131 122 178 137 185 190 190 183 180 175
187 205 205 191 193 188 181 193 240 269 244 233 237 218 218 240 271 260 259 231 287 226 198 192 185 212 216 211 196 176 185 181 174 180 187 183 179 179 186 175 172 155 175 170 137 181 171 148 131
196 211 200 179 184 187 203 193 197 261 263 254 256 249 253 220 256 247 253 257 271 218 181 191 183 181 131 171 120 174 169 193 182 179 175 188 167 177 182 184 194 185 193 155 140 112 165 180 149
187 176 198 194 177 193 185 206 204 239 249 257 254 252 234 233 239 229 240 216 109 236 218 178 183 185 197 183 192 170 196 190 179 202 199 191 191 194 191 136 189 111 166 188 183 192 190 193 202
169 204 204 196 184 196 189 195 190 204 255 237 275 250 241 229 236 240 229 238 238 240 244 234 200 193 197 173 192 186 191 204 203 191 194 123 156 171 171 176 194 193 189 187 193 195 203 213 203
188 199 201 198 186 176 193 184 169 196 217 246 245 272 238 237 216 213 232 228 225 231 222 226 210 209 191 192 200 193 181 174 187 181 181 190 172 191 190 191 187 192 195 205 226 221 219 210 214
180 175 200 197 184 188 192 186 171 194 200 265 251 241 248 233 235 233 202 224 228 230 237 230 223 222 218 220 201 224 214 153 189 185 183 197 198 183 182 219 216 215 215 218 219 220 219 221 214
173 178 189 201 198 176 195 183 168 176 189 197 261 250 236 237 230 221 223 224 222 221 214 228 195 202 124 120 123 129 171 187 189 192 225 224 216 211 207 206 221 219 213 212 246 253 251 249 245
197 191 210 206 198 188 198 185 186 178 179 196 198 228 231 247 243 240 239 220 224 221 207 222 217 215 213 202 217 228 222 219 213 218 216 215 220 221 233 231 223 225 230 230 238 242 232 211 206
197 198 193 193 197 192 190 187 187 175 187 185 188 199 212 174 225 226 238 319 307 246 225 218 218 215 212 212 210 210 210 214 217 222 233 238 225 214 225 241 244 235 238 233 196 186 195 201 203
210 196 190 224 202 194 181 190 185 187 178 182 191 183 193 197 205 237 228 243 348 297 232 239 240 222 230 228 225 223 220 217 218 207 208 202 224 204 191 178 214 191 198 198 191 194 198 205 199
198 214 217 210 198 196 181 187 192 187 183 166 188 182 185 193 194 205 212 236 236 291 275 236 227 225 228 225 234 225 221 165 216 177 208 201 177 184 172 180 180 197 188 191 195 195 200 200 195

GFSSGP_2pvu_pres_081.txt.gz
Presure
149 114 122 119 111 132 239 100 171 121 133 124 160 181 180 168 260 265 257 264 267 270 269 271 77 78 100 122 107 218 107 85 207 223 216 189 245 123 121 116 110 117 116 125 115 128 138 126 124
106 159 185 216 164 119 106 127 163 218 256 195 212 265 253 253 224 293 388 371 318 301 249 250 230 246 242 180 161 218 208 110 138 180 216 218 217 236 228 145 139 122 137 128 130 134 133 114 135
190 121 142 126 109 249 214 191 194 245 214 162 146 235 284 323 335 271 263 332 309 310 338 267 293 249 237 212 99 105 203 199 174 118 210 209 211 119 148 159 119 119 117 120 135 114 109 138 119
134 254 183 217 115 182 174 251 242 215 247 246 265 329 317 291 299 270 277 103 299 277 292 240 251 254 240 222 200 200 194 193 188 187 190 192 214 221 232 185 155 138 172 123 140 137 141 131 129
255 150 247 116 224 241 171 240 234 240 219 232 324 321 300 155 263 273 261 282 299 284 291 246 237 227 206 187 206 203 184 202 163 121 132 116 149 104 156 219 192 115 118 112 156 161 144 162 124
162 228 206 231 236 178 172 236 239 238 222 324 298 282 276 289 256 301 269 274 250 237 235 205 203 163 183 174 180 186 203 197 187 200 180 111 116 117 163 133 198 181 240 176 219 201 121 165 135
241 212 208 200 228 233 235 231 221 241 257 298 293 267 274 249 281 268 262 235 216 165 186 123 182 190 190 193 187 176 195 187 188 183 184 173 168 182 115 201 127 162 240 238 214 218 131 230 131
135 216 220 220 220 230 211 228 232 298 328 285 272 255 253 251 223 239 239 225 204 92 95 195 102 193 182 170 174 194 196 177 169 176 181 188 184 197 140 163 194 151 209 217 208 227 130 138 188
216 115 220 221 221 216 231 233 229 296 330 316 265 238 243 218 242 239 226 212 190 204 198 179 131 181 189 185 188 178 167 183 170 171 176 163 182 182 205 173 181 137 166 232 217 193 190 189 124
200 196 212 199 226 220 225 228 249 321 302 275 257 231 236 234 228 225 209 208 209 193 190 190 182 184 173 179 185 178 167 188 132 166 174 160 166 165 203 188 202 157 136 157 229 181 222 172 139
198 215 198 198 195 192 221 228 282 315 289 257 251 223 223 237 210 213 175 203 170 174 188 197 184 191 182 170 172 171 164 129 174 167 180 105 137 167 126 181 199 210 122 178 202 188 147 211 199
192 187 207 211 214 186 219 214 291 317 276 248 243 216 216 214 217 204 214 200 203 189 186 187 186 185 152 198 191 157 179 156 148 117 182 166 144 201 172 119 126 164 157 169 180 202 193 184 183
200 193 188 195 216 201 220 209 285 300 268 247 234 225 213 201 213 212 214 197 190 201 194 179 180 174 171 170 163 176 180 173 116 124 141 138 190 180 169 190 176 205 170 138 140 187 174 118 166
202 215 212 214 211 178 212 209 233 287 267 244 225 212 207 210 208 190 167 191 196 172 181 152 179 175 184 175 156 181 177 160 158 123 180 169 146 161 184 168 158 117 179 192 190 173 186 162 191
196 201 184 205 233 194 211 210 242 286 272 249 223 220 211 202 191 191 204 209 197 188 179 172 180 180 183 144 175 184 181 175 170 170 127 170 179 180 170 178 191 191 197 183 176 189 200 125 128
195 186 204 206 176 216 208 212 217 290 276 253 222 226 209 216 202 208 182 195 198 194 180 193 169 176 166 183 113 137 150 169 175 182 173 166 181 162 173 174 194 201 195 180 185 186 190 187 182
202 193 187 196 210 183 213 211 199 281 263 256 228 229 214 234 209 202 173 203 201 172 175 168 180 172 169 200 184 168 180 162 172 175 183 175 175 185 170 173 119 161 145 180 183 177 188 189 173
192 195 173 187 210 208 208 208 199 208 238 253 225 226 233 234 222 188 197 173 185 200 166 198 163 176 179 183 156 164 168 168 167 142 172 177 185 172 182 181 131 163 146 173 120 150 139 134 159
189 187 197 193 188 170 188 211 190 201 243 258 230 204 220 218 229 176 197 167 167 203 189 192 165 180 171 165 160 156 162 181 164 168 172 191 152 170 185 161 172 169 184 175 147 177 125 170 130
194 192 202 178 192 204 187 202 201 210 197 281 282 231 222 223 209 224 209 192 196 190 167 168 181 194 184 186 154 152 127 145 130 188 123 169 178 166 160 167 169 179 186 139 138 143 185 179 145
201 197 191 194 197 197 194 173 183 211 199 239 255 271 240 229 227 190 201 220 203 180 182 177 170 182 173 172 173 161 182 165 179 119 173 182 173 174 178 182 186 183 180 178 153 174 191 192 185
198 197 188 193 187 196 175 197 198 207 206 210 258 251 272 268 262 246 256 264 268 279 292 184 182 181 173 176 175 170 170 170 204 193 183 175 179 181 184 165 175 173 185 187 189 144 182 179 182
189 184 199 176 184 202 197 189 175 195 212 208 288 244 269 272 244 231 223 241 246 260 266 272 266 206 205 182 184 178 170 168 226 217 210 202 181 171 169 184 158 131 193 202 131 179 180 197 199
196 196 181 178 168 195 193 182 190 201 196 190 221 264 234 273 241 211 216 233 224 240 242 157 259 244 208 193 189 192 205 197 192 207 209 196 155 212 208 190 195 177 189 182 199 191 193 196 202
194 192 197 185 184 189 189 187 176 190 190 192 190 245 253 233 252 239 219 210 214 223 228 236 257 206 208 201 207 185 182 199 184 182 172 151 194 191 193 186 182 193 211 191 189 186 182 198 207
210 188 183 194 175 182 188 192 199 173 197 192 172 212 256 256 233 236 236 234 209 212 220 221 227 228 224 230 199 211 208 190 189 178 182 189 182 184 193 185 193 193 188 219 205 235 250 249 245
204 206 192 176 191 191 185 185 197 186 194 190 183 183 207 224 235 241 253 234 241 234 226 213 219 215 232 213 214 197 192 197 236 235 232 192 202 188 188 212 212 236 226 218 216 253 245 245 251
204 191 192 189 190 197 183 182 193 185 182 191 181 180 188 197 200 211 229 263 234 307 285 239 222 225 214 209 216 223 221 212 207 209 216 214 215 209 209 231 218 216 217 232 228 218 209 167 190
191 190 185 193 191 204 200 189 197 184 177 190 193 180 185 179 189 195 206 213 256 251 287 275 246 243 238 222 217 218 217 216 213 212 211 213 217 231 230 210 208 217 208 214 219 194 198 203 188
201 187 198 193 195 198 202 208 217 188 188 191 178 190 180 185 179 192 203 206 214 236 238 288 275 239 227 240 246 246 242 241 235 237 223 225 217 218 213 195 185 195 206 204 194 203 192 199 197

GFSSGP_2pvu_pres_084.txt.gz
Presure
122 98 99 119 89 133 144 123 105 239 126 110 152 99 197 104 187 177 125 251 270 242 233 68 284 284 252 257 170 76 241 244 201 224 78 125 241 233 110 138 136 135 120 108 103 133 118 115 123
101 105 124 91 88 148 194 271 196 137 153 256 117 180 238 102 264 196 261 261 264 267 269 261 273 269 272 159 232 225 237 245 164 177 214 228 225 135 173 179 180 194 144 137 124 108 101 110 118
98 122 238 246 278 136 258 241 254 208 178 219 246 217 172 254 253 309 325 335 324 223 372 396 298 365 254 258 259 266 258 156 227 108 148 124 218 123 220 190 233 233 236 212 137 110 133 126 132
236 151 144 222 175 225 247 106 95 151 248 249 247 252 308 251 315 311 306 293 288 262 245 216 255 369 267 232 242 270 248 218 222 212 213 98 189 197 200 190 215 170 223 111 227 228 194 90 127
203 238 243 234 226 219 203 210 217 236 243 234 241 248 335 299 297 286 292 277 299 268 258 234 219 241 236 249 230 195 215 214 210 199 192 223 130 102 185 210 200 190 186 223 215 266 125 152 158
192 234 214 144 214 111 214 217 174 204 229 241 241 314 311 285 273 278 254 253 258 267 273 255 233 269 272 226 216 204 204 190 209 194 209 198 208 197 191 121 203 162 202 195 185 205 125 225 225
204 218 214 219 156 221 212 222 233 209 232 244 284 347 136 266 254 253 281 245 264 268 287 227 236 215 135 162 180 195 194 183 190 174 180 199 183 172 192 181 117 110 184 120 185 218 208 221 126
148 131 213 210 221 219 208 207 216 211 232 234 334 326 277 240 249 256 254 264 247 258 237 230 229 150 115 187 98 145 183 191 184 189 197 188 171 203 186 160 186 122 128 118 113 227 165 175 226
221 216 208 203 207 204 221 219 212 209 230 321 311 292 263 249 249 255 245 247 226 230 216 226 213 187 184 194 184 162 178 189 174 178 188 187 185 178 193 186 196 168 223 182 177 178 210 156 221
211 203 205 202 215 195 219 218 209 228 224 315 306 273 252 234 259 224 240 227 218 207 219 195 211 193 179 164 186 186 182 175 181 194 173 180 188 184 189 172 200 165 178 202 148 168 117 116 152
201 210 207 217 200 194 233 212 215 236 218 299 302 264 243 228 236 235 230 215 192 214 204 222 221 171 197 174 187 194 202 190 192 194 166 177 152 184 179 179 183 196 185 197 198 148 158 144 142
199 198 193 200 218 195 220 227 190 218 219 288 287 242 232 214 223 220 233 210 207 211 179 208 210 193 191 194 192 195 192 174 192 182 169 161 174 181 106 183 93 153 176 173 197 201 210 199 184
198 202 192 207 208 186 191 199 212 219 255 283 269 248 228 214 225 212 224 215 196 211 205 202 198 185 175 180 192 177 190 169 184 177 154 152 178 157 148 163 185 106 184 169 203 198 195 157 183
191 200 209 213 199 196 205 188 204 209 275 287 273 248 235 219 206 214 200 208 194 210 176 184 182 189 183 193 182 190 180 191 164 184 126 157 144 139 177 174 196 182 169 191 139 129 182 177 159
190 179 208 203 203 204 192 202 200 206 223 247 256 243 219 218 205 210 217 202 195 198 177 186 160 194 188 181 177 205 183 183 189 155 120 125 183 166 168 174 185 161 204 198 179 192 191 189 170
199 186 191 206 197 204 177 216 208 208 213 245 291 252 230 224 198 209 218 162 180 203 190 192 182 176 161 187 185 172 186 161 174 168 160 127 193 119 172 164 187 178 175 189 181 178 182 174 140
193 186 192 212 205 197 196 178 196 206 203 208 252 260 226 216 211 180 204 192 203 170 193 187 171 183 172 172 188 175 151 182 182 185 178 165 167 183 183 180 177 144 172 184 176 172 173 173 190
196 188 178 210 200 208 197 204 199 182 209 203 220 258 250 216 195 210 192 192 168 199 187 177 174 183 192 181 160 175 180 170 189 182 180 178 161 178 173 163 183 167 184 168 169 143 141 171 169
193 195 196 196 190 167 197 204 214 206 197 210 199 268 288 238 231 228 207 185 185 186 204 183 176 179 185 188 179 171 182 176 167 111 183 164 120 193 163 187 177 178 171 177 186 178 179 187 177
194 178 200 191 202 203 190 178 207 216 195 201 212 232 258 270 239 223 216 224 192 195 196 198 177 176 178 188 175 161 181 182 174 173 169 125 122 152 164 180 168 162 178 180 196 172 179 167 182
183 195 188 187 206 185 194 192 203 204 193 211 198 220 268 252 271 245 214 221 175 184 165 203 159 170 181 173 163 182 172 170 172 120 119 152 173 124 139 176 170 181 174 171 170 164 169 173 165
196 180 189 194 195 188 188 185 196 207 186 206 182 215 261 248 276 260 268 226 216 204 176 185 177 191 165 182 163 176 180 177 164 164 160 188 170 165 162 178 159 182 161 174 189 185 182 147 180
190 199 188 191 198 193 181 194 182 204 195 211 189 197 212 244 270 248 249 250 260 206 203 185 197 179 192 167 183 164 176 179 192 162 165 162 169 166 179 187 165 171 175 193 189 182 182 184 183
192 196 181 189 183 192 183 179 180 197 205 197 193 193 212 257 244 260 243 245 241 243 250 253 261 194 168 189 183 188 167 183 169 180 181 173 173 178 166 160 167 186 174 214 214 215 208 208 198
197 195 198 193 191 207 177 179 191 186 207 200 191 200 198 248 254 238 252 230 211 225 231 229 250 248 259 222 193 193 185 181 141 157 188 170 140 145 187 181 182 183 147 199 190 195 193 193 186
189 196 196 184 188 187 188 188 180 193 195 192 196 189 191 197 221 239 236 237 238 227 211 219 226 234 238 241 240 248 230 192 184 181 184 180 177 180 208 183 210 194 200 197 183 189 185 202 259
195 194 194 191 198 197 184 178 177 178 193 183 198 190 191 194 201 203 211 215 238 235 239 238 216 223 225 227 227 228 240 229 201 188 192 206 201 190 189 203 198 197 192 192 196 207 215 232 232
197 195 194 199 195 198 185 180 191 181 187 199 199 180 187 198 182 188 200 200 203 256 245 313 266 236 220 216 220 234 227 226 231 232 232 230 190 197 224 214 226 223 221 230 213 216 222 225 223
204 204 202 204 192 172 182 174 177 186 194 195 207 190 190 184 197 182 194 187 190 195 229 261 301 260 245 228 220 212 218 226 225 225 231 226 224 227 221 215 213 215 226 223 230 210 206 189 203
207 207 206 202 209 193 183 170 188 185 181 186 209 192 177 190 177 178 191 182 186 194 188 206 253 291 272 245 235 235 237 235 237 235 234 251 226 232 226 234 227 219 218 227 221 195 210 201 211

GFSSGP_2pvu_pres_087.txt.gz
Presure
125 140 139 104 111 105 111 130 122 105 144 279 273 134 139 162 211 168 146 274 277 188 192 278 141 228 68 249 258 158 198 167 231 82 236 204 220 243 84 237 121 144 127 132 134 107 116 128 120
114 133 126 107 114 104 132 128 102 131 181 174 252 241 251 121 262 161 251 172 208 241 171 273 256 178 248 261 249 197 257 158 242 207 120 241 254 161 160 103 191 152 163 145 164 133 98 121 126
132 92 106 93 125 126 128 142 176 234 137 150 167 119 231 159 248 225 230 335 346 327 333 167 340 306 303 298 425 374 112 264 254 231 230 165 178 210 225 221 173 157 207 134 202 138 184 239 134
124 132 133 218 240 230 184 219 129 223 191 137 90 145 248 248 257 257 307 302 296 295 297 231 220 229 209 251 392 410 252 256 248 249 236 259 237 205 229 195 99 211 100 229 173 197 218 143 281
262 236 244 176 229 236 224 213 228 163 206 224 242 234 240 251 252 304 281 287 289 210 268 246 244 238 213 224 219 240 257 249 248 234 226 216 219 226 227 225 205 217 182 193 188 149 215 212 267
207 223 229 213 228 222 211 183 161 199 140 181 222 222 248 290 303 276 280 258 274 289 259 275 235 223 205 217 200 245 219 265 266 246 212 216 209 216 211 205 204 203 143 140 189 202 197 242 241
239 228 229 214 196 141 222 201 219 200 225 231 234 237 234 318 277 266 259 248 249 246 263 238 239 229 202 205 193 198 230 143 252 213 190 210 202 185 189 195 197 198 196 215 217 173 121 104 109
135 229 228 221 215 221 215 207 228 242 243 233 238 263 328 275 262 254 234 258 251 277 246 232 230 214 224 208 206 205 81 197 141 181 199 178 200 208 192 181 182 200 177 187 211 196 230 211 111
219 146 193 185 212 177 188 199 215 220 175 230 240 298 286 260 254 238 254 244 237 258 263 240 231 234 213 203 201 115 175 132 194 199 180 188 178 181 182 194 189 181 211 174 176 185 135 167 177
210 207 220 180 207 199 197 213 207 207 220 223 234 311 262 256 236 237 236 233 248 255 215 225 237 240 212 188 201 189 189 176 181 171 181 199 179 173 175 196 189 200 193 191 192 177 183 190 182
194 190 208 203 202 208 201 215 207 215 212 233 234 297 264 246 227 237 221 222 237 237 211 237 203 212 200 205 201 184 185 191 181 183 163 159 174 201 174 210 186 175 193 179 192 197 193 202 141
204 164 205 201 201 221 213 207 201 195 226 220 219 238 252 238 226 235 221 227 235 234 189 198 199 186 191 190 194 179 189 188 169 185 164 175 163 188 171 171 181 207 210 195 131 166 174 209 175
204 200 198 200 194 213 207 209 204 204 225 218 216 291 247 235 227 224 226 215 230 225 194 212 200 186 201 195 190 195 195 192 183 179 175 175 174 172 173 141 179 169 197 186 203 136 137 183 126
202 193 200 199 196 195 201 210 212 190 221 210 211 267 269 228 223 217 214 207 219 231 200 207 204 182 191 203 183 199 194 168 183 184 172 158 181 189 132 154 171 142 187 177 111 171 149 194 169
191 189 195 202 197 191 214 202 195 208 219 210 210 226 285 232 216 221 217 209 216 188 192 208 202 180 198 192 197 192 150 193 183 198 191 164 195 134 191 190 190 184 193 120 192 175 198 142 169
199 188 194 192 194 192 198 204 191 205 221 199 202 211 261 258 247 215 210 206 206 210 194 162 195 194 170 207 184 186 183 170 185 183 199 178 164 180 151 134 169 181 163 178 166 174 183 191 171
185 190 192 192 195 199 190 206 189 203 204 203 208 217 210 282 224 217 219 201 206 203 205 208 182 200 171 186 170 178 176 163 183 125 197 193 168 174 122 152 183 179 169 146 185 168 180 183 190
193 188 194 193 187 194 195 205 191 186 209 204 174 214 201 275 272 227 206 193 195 205 196 180 196 178 192 170 175 172 189 182 179 177 101 166 182 128 155 157 149 162 165 176 165 162 171 177 173
184 192 194 196 188 191 193 201 193 203 200 205 192 226 215 218 260 277 233 205 182 208 197 187 175 188 167 168 184 177 162 153 171 182 186 179 161 183 155 168 181 183 174 186 158 147 138 134 136
192 191 194 187 193 176 191 202 188 192 195 205 192 209 204 209 273 267 278 211 180 200 172 188 188 191 185 176 183 176 167 176 158 187 170 167 175 158 183 175 168 177 171 165 181 183 171 166 181
180 193 191 202 179 190 181 203 196 190 204 205 201 208 203 214 261 284 273 271 211 194 199 176 184 195 191 172 170 172 166 190 178 158 163 171 164 159 169 133 111 149 157 140 151 157 168 177 171
194 198 170 167 188 186 178 199 191 185 189 198 209 202 207 203 225 279 266 263 263 247 197 192 172 187 200 190 181 178 180 182 180 176 169 169 151 112 114 109 175 128 149 162 175 171 170 176 161
204 194 187 176 183 185 192 195 201 178 184 185 206 206 192 192 205 263 257 252 248 254 268 254 193 173 172 196 178 162 172 176 161 188 183 165 163 171 163 168 168 175 181 171 178 174 170 168 166
186 192 188 194 194 184 190 187 194 179 182 187 201 213 200 201 200 223 261 254 235 247 244 247 257 197 189 173 165 176 173 174 179 168 167 175 180 159 167 168 165 177 157 127 185 166 168 183 179
187 198 196 194 189 190 181 189 191 187 178 193 192 182 213 197 196 200 239 250 248 238 236 238 238 248 209 213 186 198 238 115 137 178 170 169 169 172 179 168 121 146 163 164 171 184 176 182 175
197 196 194 201 180 185 187 186 194 176 183 187 150 181 204 203 199 183 203 220 231 253 252 248 236 230 234 245 244 246 192 182 189 188 188 182 182 180 173 172 173 174 181 181 174 183 168 169 227
205 203 188 197 192 193 191 188 185 183 179 181 153 183 189 208 189 199 185 199 207 208 211 243 249 246 241 228 231 240 240 238 235 207 183 195 193 193 194 193 191 187 182 177 180 166 180 222 202
207 204 197 211 199 195 191 181 176 187 171 178 179 189 192 194 195 191 196 178 196 199 190 204 246 309 255 238 220 222 226 226 229 229 228 235 231 230 222 210 209 205 196 199 201 221 222 213 207
216 210 205 211 203 193 189 176 185 189 196 175 185 170 190 183 199 189 175 200 185 191 196 195 198 275 304 249 233 224 220 218 216 218 221 220 220 220 216 216 221 222 217 216 216 230 258 234 246
213 216 210 218 210 198 187 176 186 193 177 194 174 177 186 194 207 193 192 170 196 199 189 191 193 182 204 292 268 259 246 236 228 227 227 227 228 223 222 225 233 233 263 237 232 224 217 220 224

GFSSGP_2pvu_pres_090.txt.gz
Presure
131 84 120 110 99 94 102 123 137 128 130 122 96 129 128 119 160 250 234 164 138 206 227 238 276 276 174 255 123 71 267 270 252 195 262 240 226 231 228 221 126 230 105 106 119 119 135 131 135
128 128 123 104 94 127 132 111 137 120 104 100 122 188 142 191 149 235 245 133 262 266 249 313 286 334 275 130 199 250 211 251 269 245 179 75 115 218 79 224 233 216 216 78 87 138 135 173 179
128 130 115 124 124 136 133 130 109 115 194 140 233 230 233 242 245 219 249 207 265 267 341 331 356 370 363 246 253 209 177 256 315 261 225 199 220 223 244 231 220 172 222 217 214 225 227 172 104
95 96 128 167 131 119 135 127 130 230 223 231 222 225 235 221 138 140 225 253 270 312 322 323 257 215 223 228 200 213 192 198 382 251 252 249 232 240 250 227 182 173 224 202 144 146 251 94 152
187 155 198 232 169 238 135 216 178 213 221 225 222 231 199 139 256 211 253 317 304 296 312 266 240 231 225 215 204 203 180 230 392 299 260 247 240 231 240 227 216 221 205 208 235 219 97 143 206
212 177 211 203 206 217 184 176 181 226 210 219 226 154 257 245 249 287 300 293 279 293 281 242 237 227 206 223 207 171 179 227 216 234 248 252 242 234 225 211 228 237 224 206 210 203 227 222 198
219 161 218 177 224 231 223 223 212 169 162 217 137 220 196 282 297 291 283 269 276 294 249 236 252 236 218 204 198 191 180 207 210 228 241 237 241 236 215 215 197 204 197 215 214 207 201 200 202
211 214 230 226 221 224 145 195 217 214 216 210 226 233 237 291 281 269 266 253 268 258 254 231 220 231 194 198 213 172 188 197 200 244 218 233 208 214 197 219 209 188 202 193 194 205 226 186 186
208 186 163 155 152 197 231 173 222 223 197 214 222 239 231 271 260 252 252 252 259 245 254 246 218 245 225 233 186 185 177 190 213 244 139 207 159 92 200 189 196 194 190 189 182 181 216 199 172
199 175 203 199 164 173 224 205 222 219 215 219 211 230 265 274 259 236 247 241 246 256 241 247 211 220 207 218 208 203 167 202 204 187 199 129 192 191 203 189 178 194 181 175 195 175 189 171 180
194 199 204 197 203 208 206 213 220 216 218 224 230 223 221 260 236 250 228 238 226 248 235 225 214 217 230 190 223 204 209 195 196 183 183 185 179 165 183 179 189 182 168 168 186 180 177 188 172
196 199 187 178 195 204 206 202 194 217 210 219 154 220 218 258 234 236 224 223 246 231 237 219 220 207 206 213 178 214 194 182 196 189 172 186 186 181 187 167 178 179 175 179 181 190 195 95 182
192 189 196 199 205 196 204 199 198 217 209 208 219 226 216 249 231 217 235 219 234 240 237 216 205 222 207 190 199 189 190 180 183 196 176 180 179 190 166 178 185 175 170 179 174 154 176 162 168
193 192 181 189 191 192 200 208 201 202 211 203 215 219 209 276 242 213 222 216 218 233 229 214 204 219 191 197 194 186 198 191 193 200 180 180 182 180 182 171 179 143 172 170 185 161 168 205 158
195 186 191 199 194 192 196 196 209 195 210 200 218 203 204 217 276 223 214 217 207 212 215 205 216 213 203 195 203 191 190 199 185 193 189 183 172 181 182 177 155 179 174 143 141 162 171 166 191
188 194 190 194 186 196 190 200 205 199 209 198 208 209 206 219 169 235 216 214 215 210 219 210 195 208 189 185 183 178 179 186 168 188 178 181 162 166 174 180 179 170 183 154 134 166 159 147 192
191 204 174 185 198 194 189 192 196 203 201 199 203 217 199 199 192 269 223 217 214 214 216 232 180 175 197 184 172 178 195 193 201 166 169 166 164 179 175 148 184 194 154 157 178 143 194 173 156
210 125 189 185 191 192 190 193 193 192 206 197 196 203 210 191 215 271 249 220 217 205 211 234 165 196 192 185 165 184 179 187 161 178 168 153 179 185 166 181 145 166 117 172 192 129 130 176 148
206 191 187 190 200 189 191 196 196 187 205 199 193 198 206 212 204 278 259 269 221 212 202 214 175 181 191 180 189 167 168 153 169 186 195 180 155 169 131 184 182 149 145 153 161 132 124 158 171
197 185 142 183 202 192 187 194 195 198 195 202 189 205 210 208 206 275 257 289 261 222 204 202 206 168 185 186 186 175 166 186 174 154 159 178 154 178 163 128 147 164 161 133 166 124 182 143 162
206 207 198 187 203 193 188 192 192 196 187 201 190 193 213 206 211 221 283 276 281 259 200 197 193 181 157 184 189 178 167 181 172 178 163 169 174 163 158 144 163 168 155 180 165 135 166 167 146
213 206 194 185 185 194 178 189 190 188 180 203 186 191 198 217 208 220 238 271 259 261 229 202 193 172 182 179 183 187 168 163 163 172 185 167 162 163 161 165 180 135 175 167 128 152 165 173 170
198 207 204 194 199 193 177 179 173 184 191 200 185 186 188 203 215 201 214 270 258 252 260 218 199 189 201 182 177 192 186 180 175 170 174 179 177 179 155 173 179 180 184 176 122 167 169 162 180
194 209 207 198 187 194 180 193 180 186 194 194 189 184 196 200 197 205 202 207 258 251 244 250 263 204 196 193 195 163 164 187 180 165 160 160 161 161 172 149 149 135 168 159 170 179 165 161 172
191 208 205 203 188 196 187 186 192 191 190 190 195 175 188 195 186 212 192 195 237 261 255 248 246 252 228 197 195 197 188 198 176 182 182 178 167 167 170 174 169 175 166 169 170 139 151 164 160
196 209 209 207 201 184 190 186 193 191 190 191 196 187 188 185 197 213 200 185 194 204 227 250 259 252 243 242 255 234 210 165 120 122 120 180 118 169 170 170 173 170 169 168 167 176 165 184 181
208 212 208 197 202 190 182 183 185 180 188 188 194 184 173 189 186 193 196 199 184 206 204 207 214 237 268 249 221 234 249 251 202 208 188 188 188 183 181 174 178 184 183 186 188 189 220 205 194
209 201 213 212 196 187 198 174 180 178 185 188 197 183 180 179 193 197 205 199 201 185 189 199 202 207 266 289 243 234 223 230 240 236 235 229 222 187 182 191 197 199 219 210 213 216 207 213 208
210 197 216 213 206 196 184 189 187 188 190 188 193 186 179 181 185 185 208 201 194 199 194 191 194 186 207 256 276 244 229 220 218 222 221 220 223 226 222 220 219 220 218 220 220 213 228 236 230
210 208 213 216 210 208 204 178 187 188 192 188 189 181 186 179 196 200 197 203 195 192 192 200 200 206 191 195 202 274 248 234 227 220 216 215 216 216 217 219 244 252 257 271 241 240 240 241 218

GFSSGP_2pvu_pres_096.txt.gz
Presure
117 129 116 112 136 127 121 123 134 122 111 118 134 133 125 130 89 100 139 132 137 122 103 115 113 143 254 232 222 262 261 122 249 214 74 272 85 145 137 280 256 169 256 224 234 161 151 126 128
124 111 114 132 125 128 127 137 121 138 131 126 127 134 135 115 130 127 128 125 119 111 247 247 249 251 228 251 265 245 277 274 233 168 149 151 256 226 256 271 269 256 262 82 139 178 241 240 146
141 124 126 124 134 134 135 131 140 124 132 131 137 139 134 131 137 211 215 159 143 260 185 259 114 167 274 267 254 287 241 272 229 250 166 226 218 212 229 269 171 265 206 183 197 247 192 229 186
149 130 104 208 238 129 195 185 133 133 131 125 132 134 118 226 219 243 203 255 266 212 262 254 308 142 145 266 266 364 203 210 184 212 209 201 199 206 200 239 259 255 260 233 260 168 224 229 224
212 233 241 185 230 171 227 225 229 227 240 241 148 215 235 238 238 232 210 257 126 163 262 318 283 146 277 277 295 210 217 197 195 192 206 206 186 194 193 195 216 238 236 212 228 165 244 218 227
142 239 214 142 228 194 183 225 217 217 222 220 217 200 217 229 204 170 127 221 230 283 282 283 287 309 266 296 215 206 204 216 226 190 189 190 184 200 204 186 186 258 236 231 227 221 218 222 158
195 197 207 199 216 225 220 201 174 223 210 201 204 215 186 186 148 247 91 228 278 271 269 277 283 296 251 237 213 222 211 214 231 172 173 187 181 194 208 206 217 225 230 241 216 221 223 224 215
221 198 213 211 216 187 205 207 139 201 216 219 210 214 223 147 223 226 278 264 264 266 269 277 302 285 240 223 224 216 210 227 212 205 91 163 142 178 184 173 179 246 215 219 226 219 220 207 225
218 196 200 181 226 179 183 208 204 168 201 203 208 204 222 223 222 235 235 261 265 260 262 293 266 213 215 222 206 225 212 226 203 190 163 180 170 179 187 188 235 167 252 235 200 211 202 204 210
170 177 205 207 205 198 187 200 207 185 205 209 164 210 217 219 231 242 256 246 250 250 248 256 224 212 210 214 213 195 221 205 188 197 186 168 175 191 171 176 147 233 225 158 169 222 220 199 203
210 212 201 194 173 190 162 186 189 202 203 200 212 206 204 217 227 229 271 236 233 248 240 242 215 212 207 211 194 206 208 212 185 170 167 176 163 174 169 174 173 182 180 208 212 211 201 184 177
190 199 193 190 198 190 190 179 203 199 175 200 204 205 196 209 226 221 244 224 229 228 227 255 210 217 207 210 198 193 187 179 175 197 191 171 185 189 191 182 186 226 207 213 190 188 190 189 187
211 170 200 172 208 186 188 191 189 174 193 206 186 208 200 206 226 219 231 250 221 226 236 249 213 211 190 228 190 183 188 199 186 171 165 181 170 184 185 180 229 199 214 193 190 191 181 178 189
194 218 201 190 204 167 194 182 198 197 196 192 190 200 201 201 213 217 219 217 235 224 219 239 235 208 197 196 193 186 191 183 168 166 170 193 163 175 171 187 191 172 181 180 185 172 167 169 163
199 185 231 198 183 148 167 190 195 187 208 193 198 198 200 199 206 221 222 211 209 223 223 243 243 215 194 193 189 191 178 194 169 159 162 161 172 172 163 178 172 185 162 182 182 180 201 154 172
196 197 182 173 178 191 207 200 170 181 206 192 192 200 199 199 207 220 209 217 220 224 223 226 226 230 201 196 206 168 188 180 179 166 190 173 178 174 168 168 180 187 183 179 166 168 180 173 181
194 206 188 186 198 210 197 195 187 194 182 195 198 194 194 204 211 208 226 215 223 266 217 223 227 234 208 195 175 176 185 171 175 170 182 174 167 174 169 188 165 168 181 185 164 155 170 180 164
220 207 184 192 204 205 203 150 198 192 162 196 195 201 195 200 205 206 206 211 233 261 232 216 233 216 227 198 183 182 186 178 186 188 166 194 181 177 173 168 179 177 179 167 180 152 153 169 169
214 222 224 237 152 199 206 192 191 201 192 191 181 191 187 195 200 205 204 213 224 229 249 218 221 210 217 203 196 185 175 183 163 177 176 166 168 180 179 180 175 170 180 169 166 151 165 181 160
234 256 253 211 149 216 203 201 192 200 195 153 185 188 195 202 198 202 213 204 225 220 314 227 226 235 213 176 190 200 175 169 170 165 167 193 169 158 186 153 155 170 155 165 155 168 150 158 169
206 274 197 234 222 217 220 189 206 200 199 194 189 188 197 207 197 196 211 198 201 234 252 236 223 215 220 201 207 194 205 148 183 165 178 174 185 196 171 158 171 164 175 166 160 156 171 172 176
295 253 241 233 223 214 224 201 200 192 195 195 192 186 195 206 188 200 206 208 196 216 269 290 230 216 206 211 170 201 208 169 149 173 174 173 182 168 169 162 165 166 181 160 171 163 171 166 157
279 242 238 228 224 224 212 202 201 202 187 198 188 193 191 199 187 196 180 209 204 227 281 292 268 215 213 205 209 196 197 184 163 157 181 177 150 192 165 164 161 158 160 167 170 164 179 162 169
264 239 235 225 224 227 205 202 214 202 196 201 195 181 190 190 194 193 183 199 201 212 228 280 283 233 205 208 204 183 174 188 187 187 176 185 174 177 162 169 166 178 170 178 180 165 163 173 174
257 236 231 224 225 209 202 225 197 195 194 196 194 185 191 188 195 190 188 200 199 199 213 233 272 283 221 201 198 212 180 173 169 194 170 181 193 186 164 166 171 169 169 170 164 172 179 168 162
266 244 227 226 226 217 212 204 186 189 203 194 193 180 189 191 191 195 190 202 205 196 212 213 231 267 279 215 201 185 212 185 177 173 175 180 167 165 182 188 182 172 174 184 181 162 178 179 164
253 234 224 225 224 223 216 204 191 207 200 196 195 186 190 190 191 190 181 201 200 197 201 201 201 216 232 265 244 200 192 205 195 191 179 170 176 177 179 170 188 190 190 190 180 176 184 182 180
245 228 219 226 223 219 218 203 221 209 202 198 192 185 196 191 187 184 189 198 198 186 194 212 196 196 204 214 225 242 274 201 201 186 202 195 195 195 187 174 175 179 175 173 173 175 176 176 175
238 232 228 228 215 219 217 209 203 212 198 194 198 198 198 191 189 191 190 197 193 199 191 208 207 208 192 197 204 209 219 298 271 225 199 191 187 182 183 182 181 180 182 174 176 182 175 179 183
241 241 228 228 216 218 218 208 206 224 211 205 200 204 192 194 192 187 189 186 185 195 192 181 188 212 210 209 191 197 199 346 275 255 262 231 222 211 193 190 184 185 189 196 196 191 188 189 189

GFSSGP_2pvu_pres_099.txt.gz
Presure
129 130 129 129 130 134 117 116 118 117 102 134 135 128 137 138 127 130 131 121 101 129 123 125 133 122 141 145 108 103 239 258 252 248 243 265 274 271 75 287 275 290 291 293 290 99 243 221 178
126 125 122 127 121 126 128 118 121 124 124 124 125 126 136 134 128 128 117 134 138 134 187 272 225 225 153 117 124 259 206 235 231 101 255 241 239 241 264 257 247 137 267 144 236 278 272 81 260
140 152 126 142 143 137 137 138 137 136 139 136 207 116 140 166 137 182 218 129 138 240 262 164 277 264 239 255 244 242 266 242 252 243 244 140 253 227 211 207 214 217 231 250 260 266 262 255 242
225 230 220 207 83 214 207 209 248 210 233 238 229 215 234 230 218 240 235 242 246 263 265 314 277 321 334 366 256 264 299 260 136 144 258 248 231 211 215 213 213 214 210 229 181 253 257 202 237
155 175 137 223 186 212 235 224 216 234 219 234 224 224 205 193 227 232 239 238 237 202 295 278 247 283 143 321 343 341 197 246 162 215 189 206 201 194 200 204 195 204 200 194 210 231 252 241 241
205 195 170 140 224 176 219 195 234 161 233 185 199 224 218 223 222 226 237 236 256 257 278 283 275 277 282 300 319 211 217 229 192 192 191 177 196 196 192 192 202 189 205 189 209 227 220 231 217
201 192 180 188 204 197 217 152 220 204 226 194 218 209 214 215 213 216 176 235 256 281 81 264 256 265 286 299 314 238 268 209 216 225 201 199 210 191 201 205 191 176 180 257 246 231 223 236 218
183 226 215 186 213 173 203 177 204 181 218 184 218 214 195 215 225 226 224 238 261 179 267 261 247 269 265 295 253 240 256 221 216 213 213 222 189 191 204 191 89 190 177 242 178 186 249 219 224
198 216 204 211 219 199 140 202 219 214 204 210 208 190 209 212 212 216 218 231 268 256 251 253 251 252 256 265 262 230 207 195 213 194 202 216 193 170 191 206 175 173 179 173 219 164 218 223 208
217 207 217 200 212 207 177 200 190 208 173 204 204 190 177 152 206 215 219 229 258 240 237 244 253 236 260 243 228 231 210 186 199 191 181 193 193 195 190 190 208 175 180 166 186 182 227 207 198
207 169 176 218 199 185 198 214 208 183 198 195 201 150 204 197 211 215 213 229 230 234 232 240 248 235 253 238 220 214 198 191 191 185 184 196 205 184 194 190 185 179 163 208 191 230 204 198 200
191 208 222 183 189 155 181 211 210 188 202 194 191 210 188 199 211 211 215 217 221 244 230 228 239 248 239 230 228 190 184 192 186 205 189 183 181 188 189 184 195 164 175 205 221 212 201 198 194
189 218 193 194 196 200 213 215 207 212 198 198 191 186 209 200 209 210 213 216 227 226 233 234 254 227 201 197 202 191 185 212 206 200 187 199 184 178 182 187 181 199 183 232 213 194 194 205 206
226 211 208 200 198 212 210 221 218 185 164 198 181 189 197 186 206 205 209 209 233 211 229 235 243 217 196 195 197 183 184 186 198 193 195 199 188 170 178 170 183 169 165 173 184 192 194 205 193
208 216 198 148 171 200 219 219 163 165 215 196 195 199 192 211 205 208 205 214 222 211 255 238 227 229 188 197 187 197 177 200 183 174 169 186 191 191 193 183 172 167 171 165 179 168 188 190 181
203 198 213 205 207 200 229 218 218 195 219 199 194 174 201 185 195 198 201 208 220 216 228 241 234 240 201 200 189 188 165 199 181 178 179 185 191 170 157 177 184 173 168 159 181 181 164 177 176
223 214 222 206 168 225 214 194 178 215 213 200 203 199 189 205 199 203 205 206 218 217 239 210 233 240 228 196 178 193 179 173 172 169 176 182 180 165 170 183 174 174 160 163 179 167 169 158 168
215 214 222 226 220 234 229 219 159 184 199 207 185 186 197 199 197 198 193 200 214 215 229 218 294 239 224 195 179 196 183 202 172 172 181 175 179 168 187 179 177 177 163 167 176 166 167 160 164
211 226 204 227 231 234 246 236 240 205 209 207 190 196 189 192 174 196 197 203 211 217 215 239 329 236 225 206 199 182 195 193 173 171 173 170 173 162 176 165 175 170 167 155 175 155 158 171 178
219 214 220 233 229 247 262 232 80 195 203 215 203 190 198 198 193 195 190 205 213 209 211 225 231 240 229 213 191 187 183 201 180 175 178 180 171 186 163 184 162 172 152 180 153 175 157 166 189
217 227 208 223 230 246 218 273 211 223 215 217 203 202 191 202 196 200 197 201 201 213 227 212 220 325 229 214 206 197 176 182 191 169 174 184 173 174 162 173 177 176 158 163 160 181 170 175 169
225 230 239 259 263 207 218 266 239 222 211 211 208 200 199 205 201 195 199 197 197 194 220 216 260 305 244 231 215 204 185 198 183 168 170 175 167 183 168 159 185 174 174 162 167 163 177 167 163
229 220 229 233 235 281 229 280 219 221 203 213 96 204 193 190 191 197 197 191 202 196 204 211 223 293 252 228 232 210 186 176 183 182 181 172 169 173 178 160 157 177 163 175 177 176 183 177 170
239 244 253 233 241 329 273 249 219 215 206 199 228 212 200 200 189 195 187 194 197 196 193 208 204 274 288 236 232 218 215 164 183 181 183 176 170 164 173 174 169 169 173 170 164 164 164 166 173
250 249 230 234 339 296 254 248 216 218 209 203 220 215 200 193 197 190 187 196 187 199 198 213 202 223 276 271 216 224 216 192 184 185 181 194 175 167 169 168 172 174 165 163 190 160 191 178 182
238 252 282 266 299 282 253 234 212 215 219 215 207 210 225 190 192 193 181 195 190 206 201 209 195 209 245 267 266 214 211 221 197 175 207 185 204 192 166 179 172 180 181 186 177 173 174 173 180
248 238 284 308 284 277 246 229 216 214 215 211 212 214 212 191 196 193 191 191 187 182 198 208 199 203 210 234 267 215 203 207 212 214 189 187 196 208 203 192 206 161 162 163 180 182 167 162 173
245 235 228 291 276 269 234 221 216 210 211 206 200 216 207 191 198 181 196 198 192 188 201 197 203 191 207 203 221 240 209 197 191 195 205 205 208 176 173 172 174 178 173 171 173 172 170 172 178
253 291 281 271 266 266 231 219 212 212 218 215 205 202 211 201 187 193 180 188 189 189 189 193 204 194 207 205 200 207 224 232 202 195 198 186 203 190 184 182 184 180 176 171 173 191 186 186 183
305 291 272 268 259 255 233 219 211 210 213 216 205 197 209 205 199 196 194 197 197 188 186 194 198 194 194 211 203 193 201 205 219 229 211 201 198 195 208 200 192 192 190 190 185 182 182 181 181

GFSSGP_2pvu_pres_102.txt.gz
Presure
129 128 131 129 125 125 129 125 128 130 128 127 124 127 123 121 81 132 133 130 130 120 109 127 125 119 132 135 118 123 176 231 200 249 250 112 106 100 297 108 180 82 93 131 260 252 171 191 175
131 131 126 123 120 123 121 122 125 126 126 123 122 102 117 102 89 134 125 123 87 173 123 142 267 270 197 148 286 155 271 95 237 254 178 246 195 239 167 244 284 191 240 236 262 274 280 281 279
236 190 197 193 206 157 161 138 143 148 152 143 141 139 140 193 209 178 201 165 112 238 253 253 236 228 260 269 211 336 285 84 264 219 243 230 260 249 228 253 204 232 226 219 217 252 227 261 233
208 210 217 174 222 231 186 204 250 241 232 211 212 250 240 233 240 148 173 234 239 238 177 161 201 293 293 80 295 302 330 354 281 256 230 247 231 216 240 143 188 218 201 210 222 85 263 243 255
225 227 205 164 215 197 153 207 159 135 201 134 177 133 181 224 214 171 224 222 240 231 234 255 285 282 280 159 296 303 311 350 254 263 253 204 195 218 196 120 212 193 158 216 212 246 215 184 257
189 183 212 216 203 194 193 239 226 211 200 177 152 221 186 209 205 196 224 220 232 239 247 278 214 242 269 273 285 297 315 240 195 221 206 235 195 168 199 200 193 204 153 195 209 221 217 199 224
157 197 223 213 217 222 193 194 227 220 192 223 146 136 199 196 211 210 211 223 233 225 243 264 269 267 215 260 285 306 316 339 216 229 219 211 202 196 196 199 203 197 184 203 187 214 213 203 199
198 182 202 188 196 213 212 217 181 218 197 222 201 218 216 201 215 214 202 225 153 225 239 246 247 153 255 262 288 277 210 246 214 219 192 216 209 200 215 195 208 108 205 175 184 181 185 188 217
190 192 186 209 185 174 192 222 179 192 214 226 211 199 196 176 191 212 223 211 217 224 229 244 234 237 241 247 253 260 222 236 220 222 228 214 193 204 207 219 206 192 202 192 187 182 180 183 205
197 203 200 187 180 193 213 207 201 190 171 179 201 211 205 206 202 179 202 201 217 223 232 238 230 237 253 243 256 238 225 233 237 219 215 206 198 220 219 215 187 181 209 166 181 174 168 197 234
207 179 188 212 195 198 206 185 198 216 177 211 206 213 211 210 197 202 199 209 218 216 224 234 262 228 240 250 244 244 231 228 230 223 206 202 200 191 186 173 203 182 199 198 168 171 230 220 214
198 196 207 183 192 204 217 231 194 203 230 231 213 211 214 204 199 191 201 200 214 212 214 233 221 233 237 241 240 233 252 236 230 199 180 195 208 180 180 187 202 196 187 201 182 176 248 210 213
199 202 201 205 203 210 209 212 203 170 188 224 232 216 209 194 202 190 204 193 214 205 221 233 209 254 240 237 240 225 219 238 217 184 192 181 189 197 178 197 204 197 199 184 177 180 183 196 210
191 195 201 205 190 204 188 211 185 192 208 196 234 187 206 192 202 204 199 202 201 206 215 234 219 242 236 232 247 226 220 216 186 182 192 188 177 185 192 191 205 178 191 170 189 173 177 214 192
192 195 197 199 201 210 213 189 219 206 172 218 225 218 210 194 201 197 198 209 211 216 214 225 212 224 233 232 240 195 206 183 182 178 179 179 182 204 202 185 169 171 162 178 178 171 171 195 201
196 200 195 198 204 208 214 223 215 209 213 181 212 190 198 200 199 195 205 197 201 205 210 219 220 251 229 241 207 216 186 184 185 173 178 186 194 172 199 176 194 187 176 156 176 169 174 181 176
201 190 197 208 205 209 211 229 190 174 197 230 215 241 196 176 205 199 197 203 199 203 205 214 221 232 212 236 194 210 196 182 175 186 172 200 203 186 173 165 156 169 195 170 185 155 164 167 173
210 210 210 209 192 205 221 228 222 221 191 232 224 200 225 214 199 198 188 193 187 193 206 207 214 230 198 241 198 188 182 195 181 180 170 194 177 190 167 175 180 187 166 181 153 164 162 167 166
213 204 205 179 212 230 218 217 180 218 225 279 227 230 235 209 201 198 189 191 187 200 201 209 214 222 214 336 251 179 189 182 189 188 204 191 172 177 171 195 169 196 172 163 160 161 158 161 160
203 205 204 198 208 219 138 194 213 213 213 243 234 221 229 205 200 201 196 200 193 203 195 206 216 211 229 334 246 208 192 198 180 179 178 188 170 173 165 183 159 178 166 161 169 172 161 174 151
208 205 203 213 206 216 226 225 223 222 235 217 228 224 224 203 200 198 200 191 199 193 199 209 205 215 229 214 238 226 200 194 172 186 178 175 176 173 170 180 166 169 177 179 172 169 164 164 162
202 195 210 207 213 215 224 209 214 213 228 207 216 221 228 195 202 201 193 199 199 200 202 196 192 211 216 293 240 218 227 185 197 173 183 183 179 178 186 175 169 165 177 165 160 166 171 172 158
213 209 221 226 211 240 226 234 193 230 223 207 186 224 219 220 193 201 195 197 196 207 200 194 185 207 211 277 280 225 214 195 178 194 172 181 174 176 187 171 157 166 171 182 160 162 171 165 174
231 232 215 217 247 234 235 247 248 241 219 259 250 232 223 214 202 205 197 194 190 193 194 191 206 204 215 207 288 229 214 212 191 182 185 177 188 180 179 183 168 167 161 158 172 172 173 170 174
240 233 230 240 255 247 233 142 251 209 314 271 229 226 221 231 219 207 202 197 197 195 200 204 206 214 206 210 234 266 225 202 204 195 185 176 173 181 183 171 170 168 163 165 166 181 177 180 182
225 240 243 249 248 245 253 269 238 264 290 254 225 223 219 217 218 209 203 194 194 198 184 210 207 198 209 208 210 224 249 221 206 200 185 184 174 167 190 177 171 173 173 175 174 159 162 167 204
234 244 252 245 255 257 254 238 234 319 264 242 221 224 222 219 207 228 205 205 193 179 194 194 188 201 211 203 192 239 276 225 215 206 196 179 195 167 183 180 172 172 173 174 171 163 162 161 164
251 238 235 247 240 237 241 236 305 287 254 231 220 220 216 223 220 208 210 210 199 186 194 183 197 194 205 197 200 202 231 253 228 206 201 202 189 200 186 178 176 172 180 172 181 183 180 177 180
255 251 250 245 241 251 232 238 296 269 246 229 220 220 220 216 218 191 211 211 198 191 186 191 182 188 193 204 193 202 208 225 239 213 208 215 209 199 192 181 171 197 188 180 185 193 191 191 189
272 251 251 245 241 242 242 276 284 258 235 228 217 215 220 214 202 206 201 210 203 180 187 189 193 187 193 199 201 193 201 201 213 232 205 201 212 211 209 213 212 211 202 202 170 171 173 180 190

GFSSGP_2pvu_pres_105.txt.gz
Presure
127 123 125 128 123 129 127 126 127 127 130 121 125 120 128 127 127 128 124 114 122 124 139 136 130 130 131 90 121 123 125 118 124 136 123 123 111 118 185 144 149 145 96 113 124 79 81 231 159
129 129 122 117 122 125 120 120 119 127 120 121 125 122 123 128 129 131 124 123 119 81 115 133 145 142 130 185 223 151 249 267 312 286 189 204 257 218 171 184 235 253 117 144 289 270 254 271 254
134 146 138 132 127 127 123 117 118 137 138 144 223 199 208 194 178 141 180 184 185 177 214 149 207 254 180 168 291 238 194 206 227 343 312 89 255 244 238 236 107 260 284 231 253 232 252 269 256
198 222 220 216 218 221 233 238 239 222 202 260 151 237 233 218 234 212 225 227 162 225 226 230 230 254 165 149 156 243 294 303 313 289 89 269 154 236 230 261 230 223 229 247 209 237 228 169 182
214 206 189 177 215 179 169 199 237 163 165 158 201 164 236 229 196 202 135 153 185 132 190 201 243 242 263 283 284 279 291 305 322 335 175 228 245 225 226 271 234 222 236 213 220 190 150 182 150
207 175 186 168 189 158 210 208 181 209 186 230 240 187 204 208 221 223 188 172 226 148 206 185 235 236 256 241 260 285 306 280 345 269 249 227 235 221 227 223 217 219 222 170 212 206 215 195 201
180 215 198 159 210 195 204 186 202 163 163 231 180 225 211 223 192 200 218 219 196 215 221 220 216 233 253 226 264 288 269 300 227 271 231 223 230 211 199 199 205 212 191 218 196 212 194 194 207
207 196 205 144 146 225 220 204 211 166 203 198 231 226 208 230 226 218 212 205 193 218 219 219 229 232 241 249 251 270 243 207 202 215 221 230 160 228 212 205 195 199 206 207 212 188 201 213 202
164 179 206 208 210 186 211 188 208 204 182 149 204 224 206 211 213 186 209 212 220 213 205 169 222 226 243 238 240 270 256 225 228 217 210 204 221 225 210 215 220 213 197 154 211 194 200 193 174
135 188 178 208 198 207 188 219 205 205 197 200 207 206 199 165 185 211 208 213 213 203 169 216 217 225 225 242 233 269 226 216 215 237 216 202 204 217 216 196 216 234 214 191 201 194 176 195 180
161 159 168 205 208 209 210 193 211 217 195 182 207 188 221 218 222 212 224 184 208 207 206 202 222 226 224 240 232 238 265 219 216 235 206 222 215 217 227 200 211 216 198 203 194 185 165 187 183
200 213 203 206 211 199 204 201 212 210 217 202 204 205 206 214 224 203 204 210 202 202 205 210 220 222 225 238 224 233 253 237 220 238 249 234 200 201 215 223 209 188 187 171 175 186 183 184 162
184 224 196 194 210 204 205 201 210 209 211 190 211 190 189 177 190 207 209 205 195 202 202 210 218 225 231 216 229 234 228 249 218 221 230 218 207 197 184 182 183 205 190 188 183 190 191 178 193
195 212 214 198 193 197 201 204 212 203 214 189 220 202 210 201 193 218 211 208 193 152 198 215 213 219 221 223 236 225 230 224 243 245 241 216 204 182 175 180 188 191 172 185 205 184 181 174 177
205 199 200 223 202 196 201 213 203 206 209 219 198 213 178 224 237 201 231 201 203 199 196 204 205 214 216 231 226 231 232 220 233 258 226 215 214 212 173 183 199 173 191 187 192 203 183 176 190
196 186 188 192 190 201 217 199 202 210 222 218 215 191 219 232 232 226 233 208 198 196 189 211 206 211 221 226 206 234 227 216 188 226 225 204 173 182 175 170 193 183 173 195 175 158 171 180 168
188 194 186 186 195 197 205 196 194 216 204 203 223 200 205 220 243 242 230 216 206 201 203 204 199 210 222 216 203 237 215 211 217 204 203 192 174 173 187 187 192 196 169 196 188 155 160 190 164
184 188 198 192 189 200 204 196 209 201 192 208 199 202 197 220 231 251 221 195 203 193 209 199 188 204 215 220 219 269 208 193 208 192 187 177 190 191 183 178 179 180 152 172 164 183 163 184 175
188 196 200 201 191 194 212 222 220 204 220 214 222 203 199 183 222 241 224 225 150 203 193 190 205 204 213 218 220 286 205 207 194 183 185 184 177 176 174 177 183 156 182 170 176 183 180 174 152
191 210 185 194 188 207 216 216 208 208 199 205 220 221 198 220 244 236 228 244 209 199 196 190 206 198 212 217 207 199 246 202 196 192 194 182 179 174 174 173 199 177 174 181 179 167 165 163 162
203 198 196 198 200 205 210 215 208 144 147 150 219 214 210 210 225 247 234 239 211 201 195 192 200 198 205 211 222 212 237 202 197 189 191 183 187 181 172 173 185 178 178 171 167 168 153 158 179
229 217 210 220 207 214 221 224 199 196 191 210 225 200 226 210 228 228 232 208 212 201 205 195 208 207 197 201 217 284 244 223 198 185 183 186 179 185 185 190 169 199 175 173 165 173 176 167 176
227 231 219 215 220 225 210 244 207 207 208 210 225 212 231 236 236 220 233 240 213 204 194 203 199 200 200 195 215 272 255 228 213 187 185 191 183 182 176 184 186 186 163 166 172 163 183 169 163
237 229 238 222 216 249 219 142 183 219 225 210 229 237 234 262 233 197 227 216 224 205 196 193 190 200 197 182 225 227 303 211 219 213 186 171 182 178 171 178 186 188 186 180 170 164 175 173 173
237 234 236 235 245 235 228 169 243 234 220 213 250 233 244 245 247 205 227 222 220 208 206 198 193 203 194 212 217 221 285 234 210 211 203 192 178 186 185 184 170 181 189 176 176 179 185 173 169
238 236 234 242 246 226 233 224 75 220 233 248 245 251 247 229 245 227 221 217 215 206 204 204 193 205 202 199 217 205 230 300 219 203 205 203 195 176 173 198 179 174 172 173 188 179 183 170 181
233 238 223 229 241 237 243 240 234 243 243 244 246 239 239 270 241 238 236 213 212 206 207 193 201 189 200 195 213 206 215 272 231 214 199 188 194 192 181 179 181 165 170 162 168 183 181 178 170
251 240 238 247 247 243 244 240 243 237 241 246 239 242 278 256 237 238 226 225 231 209 206 197 193 185 192 202 207 210 189 212 261 221 207 199 193 195 197 188 183 181 181 182 172 163 167 172 171
256 257 266 266 259 255 240 242 226 238 241 240 237 298 256 246 240 222 242 228 208 219 211 202 197 187 184 202 190 205 202 194 205 252 216 207 198 194 195 193 182 179 178 183 182 184 181 189 177
291 284 279 277 270 258 246 240 233 241 245 226 249 301 259 239 227 228 218 224 207 217 220 209 207 186 194 173 203 198 207 196 198 203 238 239 208 197 204 191 179 185 198 189 168 170 170 173 182